Time,TemperatureF,DewpointF,PressureIn,WindDirection,WindDirectionDegrees,WindSpeedMPH,WindSpeedGustMPH,Humidity,HourlyPrecipIn,Conditions,Clouds,dailyrainin,SoftwareType,DateUTC
2013-02-03 00:01:00,51.5,22.5,30.09,SE,135,3.4,5.8,32,0.00,,,0.00,WUHU216HW,2013-02-03 07:01:00,
2013-02-03 00:04:00,51.5,22.5,30.09,South,180,4.0,5.8,32,0.00,,,0.00,WUHU216HW,2013-02-03 07:04:00,
2013-02-03 00:06:00,51.5,22.5,30.09,SSE,158,3.8,5.8,32,0.00,,,0.00,WUHU216HW,2013-02-03 07:06:00,
2013-02-03 00:09:00,51.5,22.5,30.09,SSE,158,3.6,5.8,32,0.00,,,0.00,WUHU216HW,2013-02-03 07:09:00,
2013-02-03 00:11:00,51.5,22.5,30.09,SSE,158,4.0,5.1,32,0.00,,,0.00,WUHU216HW,2013-02-03 07:11:00,
2013-02-03 00:14:00,51.5,22.5,30.09,SE,135,2.9,5.1,32,0.00,,,0.00,WUHU216HW,2013-02-03 07:14:00,
2013-02-03 00:16:00,51.5,22.5,30.09,SE,135,3.4,5.1,32,0.00,,,0.00,WUHU216HW,2013-02-03 07:16:00,
2013-02-03 00:19:00,51.5,22.5,30.09,SSE,158,2.7,4.7,32,0.00,,,0.00,WUHU216HW,2013-02-03 07:19:00,
2013-02-03 00:20:00,51.5,22.5,30.09,SE,135,1.6,4.7,32,0.00,,,0.00,WUHU216HW,2013-02-03 07:20:00,
2013-02-03 00:21:00,51.3,22.3,30.09,SE,135,2.5,4.7,32,0.00,,,0.00,WUHU216HW,2013-02-03 07:21:00,
2013-02-03 00:24:00,51.3,22.3,30.09,SSE,158,2.2,4.0,32,0.00,,,0.00,WUHU216HW,2013-02-03 07:24:00,
2013-02-03 00:25:00,51.3,22.3,30.09,SE,135,2.7,4.0,32,0.00,,,0.00,WUHU216HW,2013-02-03 07:25:00,
2013-02-03 00:27:00,51.1,22.1,30.09,SSE,158,3.6,4.0,32,0.00,,,0.00,WUHU216HW,2013-02-03 07:27:00,
2013-02-03 00:29:00,51.1,22.1,30.09,South,180,4.7,4.7,32,0.00,,,0.00,WUHU216HW,2013-02-03 07:29:00,
2013-02-03 00:30:00,51.1,22.1,30.09,South,180,4.7,4.7,32,0.00,,,0.00,WUHU216HW,2013-02-03 07:30:00,
2013-02-03 00:32:00,51.1,22.1,30.09,SE,135,4.3,4.7,32,0.00,,,0.00,WUHU216HW,2013-02-03 07:32:00,
2013-02-03 00:34:00,51.1,22.1,30.09,SSE,158,1.8,4.7,32,0.00,,,0.00,WUHU216HW,2013-02-03 07:34:00,
2013-02-03 00:35:00,51.1,22.1,30.09,SSE,158,2.5,4.7,32,0.00,,,0.00,WUHU216HW,2013-02-03 07:35:00,
2013-02-03 00:37:00,51.1,22.1,30.09,SSE,158,2.7,4.7,32,0.00,,,0.00,WUHU216HW,2013-02-03 07:37:00,
2013-02-03 00:39:00,51.1,22.1,30.09,SE,135,2.0,4.7,32,0.00,,,0.00,WUHU216HW,2013-02-03 07:39:00,
2013-02-03 00:40:00,51.1,22.1,30.09,SE,135,1.8,4.7,32,0.00,,,0.00,WUHU216HW,2013-02-03 07:40:00,
2013-02-03 00:42:00,51.1,22.1,30.09,SW,225,0.4,3.4,32,0.00,,,0.00,WUHU216HW,2013-02-03 07:42:00,
2013-02-03 00:45:00,50.9,22.7,30.09,WNW,293,2.5,2.9,33,0.00,,,0.00,WUHU216HW,2013-02-03 07:45:00,
2013-02-03 00:47:00,50.9,22.7,30.09,NW,315,2.0,3.4,33,0.00,,,0.00,WUHU216HW,2013-02-03 07:47:00,
2013-02-03 00:50:00,50.8,22.5,30.09,NNW,338,1.8,3.4,33,0.00,,,0.00,WUHU216HW,2013-02-03 07:50:00,
2013-02-03 00:52:00,50.8,22.5,30.08,NNW,338,0.2,3.4,33,0.00,,,0.00,WUHU216HW,2013-02-03 07:52:00,
2013-02-03 00:55:00,50.8,22.5,30.08,NNW,338,0.0,3.4,33,0.00,,,0.00,WUHU216HW,2013-02-03 07:55:00,
2013-02-03 00:56:00,50.8,22.5,30.08,West,270,0.0,3.4,33,0.00,,,0.00,WUHU216HW,2013-02-03 07:56:00,
2013-02-03 00:57:00,50.6,22.3,30.08,West,270,0.0,2.2,33,0.00,,,0.00,WUHU216HW,2013-02-03 07:57:00,
2013-02-03 01:00:00,50.6,22.3,30.08,NNW,338,0.0,1.8,33,0.00,,,0.00,WUHU216HW,2013-02-03 08:00:00,
2013-02-03 01:01:00,50.6,22.3,30.08,West,270,0.0,0.4,33,0.00,,,0.00,WUHU216HW,2013-02-03 08:01:00,
2013-02-03 01:02:00,50.4,22.1,30.08,WSW,248,0.0,0.2,33,0.00,,,0.00,WUHU216HW,2013-02-03 08:02:00,
2013-02-03 01:05:00,50.4,22.9,30.08,West,270,1.8,2.2,34,0.00,,,0.00,WUHU216HW,2013-02-03 08:05:00,
2013-02-03 01:06:00,50.2,22.7,30.09,West,270,1.6,2.2,34,0.00,,,0.00,WUHU216HW,2013-02-03 08:06:00,
2013-02-03 01:07:00,50.0,22.5,30.08,West,270,1.6,2.7,34,0.00,,,0.00,WUHU216HW,2013-02-03 08:07:00,
2013-02-03 01:10:00,50.0,22.5,30.08,West,270,1.8,2.7,34,0.00,,,0.00,WUHU216HW,2013-02-03 08:10:00,
2013-02-03 01:11:00,50.0,22.5,30.08,West,270,2.5,2.7,34,0.00,,,0.00,WUHU216HW,2013-02-03 08:11:00,
2013-02-03 01:12:00,49.9,23.0,30.08,West,270,2.7,2.7,35,0.00,,,0.00,WUHU216HW,2013-02-03 08:12:00,
2013-02-03 01:16:00,49.7,23.6,30.08,WSW,248,3.4,3.4,36,0.00,,,0.00,WUHU216HW,2013-02-03 08:16:00,
2013-02-03 01:17:00,49.7,23.6,30.08,WSW,248,2.5,3.4,36,0.00,,,0.00,WUHU216HW,2013-02-03 08:17:00,
2013-02-03 01:21:00,49.7,23.6,30.08,SSW,203,1.3,3.4,36,0.00,,,0.00,WUHU216HW,2013-02-03 08:21:00,
2013-02-03 01:22:00,49.7,22.2,30.08,SW,225,0.0,3.4,34,0.00,,,0.00,WUHU216HW,2013-02-03 08:22:00,
2013-02-03 01:26:00,49.7,22.2,30.08,West,270,0.0,3.4,34,0.00,,,0.00,WUHU216HW,2013-02-03 08:26:00,
2013-02-03 01:28:00,49.9,22.4,30.08,NW,315,1.8,2.0,34,0.00,,,0.00,WUHU216HW,2013-02-03 08:28:00,
2013-02-03 01:31:00,50.0,22.5,30.08,West,270,2.2,2.7,34,0.00,,,0.00,WUHU216HW,2013-02-03 08:31:00,
2013-02-03 01:33:00,50.0,22.5,30.08,West,270,3.4,3.4,34,0.00,,,0.00,WUHU216HW,2013-02-03 08:33:00,
2013-02-03 01:36:00,49.9,22.4,30.08,NW,315,3.4,3.4,34,0.00,,,0.00,WUHU216HW,2013-02-03 08:36:00,
2013-02-03 01:38:00,50.0,21.9,30.08,West,270,1.8,3.4,33,0.00,,,0.00,WUHU216HW,2013-02-03 08:38:00,
2013-02-03 01:41:00,50.0,21.9,30.07,SSW,203,1.3,3.4,33,0.00,,,0.00,WUHU216HW,2013-02-03 08:41:00,
2013-02-03 01:43:00,50.2,22.1,30.07,WSW,248,1.6,3.4,33,0.00,,,0.00,WUHU216HW,2013-02-03 08:43:00,
2013-02-03 01:46:00,50.4,21.5,30.07,SSW,203,0.9,3.4,32,0.00,,,0.00,WUHU216HW,2013-02-03 08:46:00,
2013-02-03 01:47:00,50.4,22.1,30.07,WNW,293,0.9,2.9,33,0.00,,,0.00,WUHU216HW,2013-02-03 08:47:00,
2013-02-03 01:49:00,50.4,22.1,30.07,West,270,0.0,2.7,33,0.00,,,0.00,WUHU216HW,2013-02-03 08:49:00,
2013-02-03 01:51:00,50.4,22.1,30.07,East,90,0.0,1.8,33,0.00,,,0.00,WUHU216HW,2013-02-03 08:51:00,
2013-02-03 01:52:00,50.4,22.1,30.07,East,90,0.0,1.8,33,0.00,,,0.00,WUHU216HW,2013-02-03 08:52:00,
2013-02-03 01:54:00,50.4,21.5,30.07,ESE,113,0.4,1.6,32,0.00,,,0.00,WUHU216HW,2013-02-03 08:54:00,
2013-02-03 01:56:00,50.2,21.3,30.07,SSE,158,3.1,3.4,32,0.00,,,0.00,WUHU216HW,2013-02-03 08:56:00,
2013-02-03 01:57:00,50.2,21.3,30.07,South,180,2.5,3.4,32,0.00,,,0.00,WUHU216HW,2013-02-03 08:57:00,
2013-02-03 01:59:00,50.2,21.3,30.07,SSE,158,1.1,3.4,32,0.00,,,0.00,WUHU216HW,2013-02-03 08:59:00,
2013-02-03 02:02:00,50.2,21.3,30.06,SSE,158,0.9,3.4,32,0.00,,,0.00,WUHU216HW,2013-02-03 09:02:00,
2013-02-03 02:04:00,50.4,21.5,30.06,ESE,113,1.8,3.4,32,0.00,,,0.00,WUHU216HW,2013-02-03 09:04:00,
2013-02-03 02:07:00,50.4,21.5,30.06,ESE,113,1.8,2.5,32,0.00,,,0.00,WUHU216HW,2013-02-03 09:07:00,
2013-02-03 02:09:00,50.4,22.1,30.06,ESE,113,1.3,2.5,33,0.00,,,0.00,WUHU216HW,2013-02-03 09:09:00,
2013-02-03 02:12:00,50.4,22.1,30.06,ESE,113,2.0,2.5,33,0.00,,,0.00,WUHU216HW,2013-02-03 09:12:00,
2013-02-03 02:14:00,50.2,22.1,30.06,East,90,1.8,2.5,33,0.00,,,0.00,WUHU216HW,2013-02-03 09:14:00,
2013-02-03 02:17:00,50.2,22.1,30.06,ESE,113,2.0,2.5,33,0.00,,,0.00,WUHU216HW,2013-02-03 09:17:00,
2013-02-03 02:18:00,50.2,22.1,30.05,ESE,113,2.5,2.5,33,0.00,,,0.00,WUHU216HW,2013-02-03 09:18:00,
2013-02-03 02:20:00,50.2,22.1,30.05,ESE,113,2.9,2.9,33,0.00,,,0.00,WUHU216HW,2013-02-03 09:20:00,
2013-02-03 02:22:00,50.0,21.9,30.05,East,90,2.5,2.9,33,0.00,,,0.00,WUHU216HW,2013-02-03 09:22:00,
2013-02-03 02:23:00,50.0,21.9,30.05,ESE,113,2.5,2.9,33,0.00,,,0.00,WUHU216HW,2013-02-03 09:23:00,
2013-02-03 02:25:00,50.0,21.9,30.05,ESE,113,1.6,2.9,33,0.00,,,0.00,WUHU216HW,2013-02-03 09:25:00,
2013-02-03 02:27:00,50.0,21.9,30.05,SSE,158,1.1,2.9,33,0.00,,,0.00,WUHU216HW,2013-02-03 09:27:00,
2013-02-03 02:28:00,50.0,21.9,30.05,SE,135,0.9,2.9,33,0.00,,,0.00,WUHU216HW,2013-02-03 09:28:00,
2013-02-03 02:30:00,50.0,21.9,30.05,East,90,0.9,2.9,33,0.00,,,0.00,WUHU216HW,2013-02-03 09:30:00,
2013-02-03 02:32:00,50.0,21.9,30.05,ENE,68,1.1,2.5,33,0.00,,,0.00,WUHU216HW,2013-02-03 09:32:00,
2013-02-03 02:33:00,50.0,21.9,30.05,ENE,68,0.7,2.5,33,0.00,,,0.00,WUHU216HW,2013-02-03 09:33:00,
2013-02-03 02:35:00,50.0,21.9,30.05,NE,45,0.4,2.0,33,0.00,,,0.00,WUHU216HW,2013-02-03 09:35:00,
2013-02-03 02:37:00,50.0,21.9,30.05,NE,45,0.4,2.0,33,0.00,,,0.00,WUHU216HW,2013-02-03 09:37:00,
2013-02-03 02:38:00,50.0,21.9,30.05,NE,45,0.4,2.0,33,0.00,,,0.00,WUHU216HW,2013-02-03 09:38:00,
2013-02-03 02:41:00,50.0,21.9,30.05,SW,225,0.0,2.0,33,0.00,,,0.00,WUHU216HW,2013-02-03 09:41:00,
2013-02-03 02:42:00,50.0,21.9,30.05,NW,315,1.1,1.8,33,0.00,,,0.00,WUHU216HW,2013-02-03 09:42:00,
2013-02-03 02:43:00,50.0,21.9,30.05,NW,315,1.1,1.8,33,0.00,,,0.00,WUHU216HW,2013-02-03 09:43:00,
2013-02-03 02:46:00,50.0,21.9,30.05,NW,315,1.8,1.8,33,0.00,,,0.00,WUHU216HW,2013-02-03 09:46:00,
2013-02-03 02:48:00,50.2,22.1,30.05,NNW,338,2.2,2.2,33,0.00,,,0.00,WUHU216HW,2013-02-03 09:48:00,
2013-02-03 02:51:00,50.2,22.7,30.05,NW,315,1.3,2.2,34,0.00,,,0.00,WUHU216HW,2013-02-03 09:51:00,
2013-02-03 02:53:00,50.0,22.5,30.05,NW,315,0.4,2.2,34,0.00,,,0.00,WUHU216HW,2013-02-03 09:53:00,
2013-02-03 02:56:00,50.0,24.0,30.05,West,270,1.6,2.2,36,0.00,,,0.00,WUHU216HW,2013-02-03 09:56:00,
2013-02-03 02:58:00,50.0,24.0,30.05,WNW,293,1.3,2.2,36,0.00,,,0.00,WUHU216HW,2013-02-03 09:58:00,
2013-02-03 03:02:00,49.9,23.8,30.05,West,270,1.6,2.2,36,0.00,,,0.00,WUHU216HW,2013-02-03 10:02:00,
2013-02-03 03:03:00,49.9,23.8,30.05,West,270,2.0,2.2,36,0.00,,,0.00,WUHU216HW,2013-02-03 10:03:00,
2013-02-03 03:07:00,49.7,24.3,30.05,NW,315,1.3,2.5,37,0.00,,,0.00,WUHU216HW,2013-02-03 10:07:00,
2013-02-03 03:08:00,49.7,23.6,30.05,WNW,293,0.4,2.5,36,0.00,,,0.00,WUHU216HW,2013-02-03 10:08:00,
2013-02-03 03:09:00,49.7,23.6,30.05,NW,315,1.3,2.5,36,0.00,,,0.00,WUHU216HW,2013-02-03 10:09:00,
2013-02-03 03:12:00,49.5,24.1,30.05,NNW,338,1.8,2.7,37,0.00,,,0.00,WUHU216HW,2013-02-03 10:12:00,
2013-02-03 03:13:00,49.5,23.4,30.05,North,0,1.6,2.7,36,0.00,,,0.00,WUHU216HW,2013-02-03 10:13:00,
2013-02-03 03:14:00,49.5,23.4,30.05,North,0,1.8,2.7,36,0.00,,,0.00,WUHU216HW,2013-02-03 10:14:00,
2013-02-03 03:17:00,49.3,23.9,30.05,NNW,338,2.7,2.7,37,0.00,,,0.00,WUHU216HW,2013-02-03 10:17:00,
2013-02-03 03:18:00,49.3,23.9,30.05,NNW,338,1.6,2.7,37,0.00,,,0.00,WUHU216HW,2013-02-03 10:18:00,
2013-02-03 03:19:00,49.3,23.9,30.05,NNW,338,1.6,2.7,37,0.00,,,0.00,WUHU216HW,2013-02-03 10:19:00,
2013-02-03 03:22:00,49.3,23.3,30.05,NW,315,0.9,2.7,36,0.00,,,0.00,WUHU216HW,2013-02-03 10:22:00,
2013-02-03 03:23:00,49.3,23.3,30.04,NW,315,0.9,2.7,36,0.00,,,0.00,WUHU216HW,2013-02-03 10:23:00,
2013-02-03 03:24:00,49.3,23.3,30.04,NW,315,0.4,2.7,36,0.00,,,0.00,WUHU216HW,2013-02-03 10:24:00,
2013-02-03 03:27:00,49.3,23.3,30.04,NW,315,0.7,2.7,36,0.00,,,0.00,WUHU216HW,2013-02-03 10:27:00,
2013-02-03 03:28:00,49.3,23.3,30.04,West,270,0.9,2.2,36,0.00,,,0.00,WUHU216HW,2013-02-03 10:28:00,
2013-02-03 03:29:00,49.3,23.3,30.04,West,270,0.7,2.2,36,0.00,,,0.00,WUHU216HW,2013-02-03 10:29:00,
2013-02-03 03:32:00,49.3,23.3,30.04,West,270,2.5,2.5,36,0.00,,,0.00,WUHU216HW,2013-02-03 10:32:00,
2013-02-03 03:33:00,49.1,23.8,30.04,West,270,2.9,2.9,37,0.00,,,0.00,WUHU216HW,2013-02-03 10:33:00,
2013-02-03 03:34:00,49.1,24.5,30.04,West,270,3.1,3.4,38,0.00,,,0.00,WUHU216HW,2013-02-03 10:34:00,
2013-02-03 03:35:00,49.1,24.5,30.04,West,270,3.1,3.4,38,0.00,,,0.00,WUHU216HW,2013-02-03 10:35:00,
2013-02-03 03:38:00,48.8,24.1,30.04,West,270,3.6,3.8,38,0.00,,,0.00,WUHU216HW,2013-02-03 10:38:00,
2013-02-03 03:39:00,48.8,24.1,30.04,West,270,3.1,3.8,38,0.00,,,0.00,WUHU216HW,2013-02-03 10:39:00,
2013-02-03 03:40:00,48.6,24.0,30.04,West,270,3.4,3.8,38,0.00,,,0.00,WUHU216HW,2013-02-03 10:40:00,
2013-02-03 03:43:00,48.4,23.9,30.04,NW,315,4.3,4.7,38,0.00,,,0.00,WUHU216HW,2013-02-03 10:43:00,
2013-02-03 03:44:00,48.4,23.2,30.04,West,270,2.9,4.7,37,0.00,,,0.00,WUHU216HW,2013-02-03 10:44:00,
2013-02-03 03:45:00,48.4,23.2,30.04,WNW,293,2.9,4.7,37,0.00,,,0.00,WUHU216HW,2013-02-03 10:45:00,
2013-02-03 03:48:00,49.0,23.0,30.04,NW,315,2.2,4.7,36,0.00,,,0.00,WUHU216HW,2013-02-03 10:48:00,
2013-02-03 03:49:00,49.0,23.0,30.04,NW,315,1.6,4.7,36,0.00,,,0.00,WUHU216HW,2013-02-03 10:49:00,
2013-02-03 03:50:00,49.1,23.1,30.04,NW,315,1.8,4.7,36,0.00,,,0.00,WUHU216HW,2013-02-03 10:50:00,
2013-02-03 03:53:00,49.3,23.3,30.04,NW,315,2.0,4.0,36,0.00,,,0.00,WUHU216HW,2013-02-03 10:53:00,
2013-02-03 03:54:00,49.3,23.3,30.04,WNW,293,1.6,3.4,36,0.00,,,0.00,WUHU216HW,2013-02-03 10:54:00,
2013-02-03 03:55:00,49.3,23.3,30.04,West,270,1.8,2.9,36,0.00,,,0.00,WUHU216HW,2013-02-03 10:55:00,
2013-02-03 03:58:00,49.5,23.4,30.04,WNW,293,0.9,2.9,36,0.00,,,0.00,WUHU216HW,2013-02-03 10:58:00,
2013-02-03 03:59:00,49.3,23.3,30.04,ESE,113,1.6,2.9,36,0.00,,,0.00,WUHU216HW,2013-02-03 10:59:00,
2013-02-03 04:00:00,49.3,23.3,30.04,SE,135,1.3,2.9,36,0.00,,,0.00,WUHU216HW,2013-02-03 11:00:00,
2013-02-03 04:03:00,49.3,23.3,30.04,SSE,158,2.5,2.7,36,0.00,,,0.00,WUHU216HW,2013-02-03 11:03:00,
2013-02-03 04:04:00,49.1,23.1,30.04,South,180,0.7,2.7,36,0.00,,,0.00,WUHU216HW,2013-02-03 11:04:00,
2013-02-03 04:05:00,49.1,23.1,30.04,SW,225,0.4,2.7,36,0.00,,,0.00,WUHU216HW,2013-02-03 11:05:00,
2013-02-03 04:08:00,49.0,23.7,30.04,WSW,248,1.1,2.7,37,0.00,,,0.00,WUHU216HW,2013-02-03 11:08:00,
2013-02-03 04:09:00,49.0,23.7,30.04,West,270,0.9,2.7,37,0.00,,,0.00,WUHU216HW,2013-02-03 11:09:00,
2013-02-03 04:10:00,48.8,23.5,30.04,West,270,0.4,2.7,37,0.00,,,0.00,WUHU216HW,2013-02-03 11:10:00,
2013-02-03 04:13:00,48.6,22.7,30.04,North,0,0.7,1.6,36,0.00,,,0.00,WUHU216HW,2013-02-03 11:13:00,
2013-02-03 04:14:00,48.6,22.7,30.04,North,0,0.4,1.6,36,0.00,,,0.00,WUHU216HW,2013-02-03 11:14:00,
2013-02-03 04:15:00,48.6,22.7,30.04,North,0,0.4,1.6,36,0.00,,,0.00,WUHU216HW,2013-02-03 11:15:00,
2013-02-03 04:16:00,48.6,22.7,30.04,North,0,0.9,1.6,36,0.00,,,0.00,WUHU216HW,2013-02-03 11:16:00,
2013-02-03 04:18:00,48.6,22.7,30.04,North,0,0.0,1.6,36,0.00,,,0.00,WUHU216HW,2013-02-03 11:18:00,
2013-02-03 04:19:00,48.6,22.7,30.03,SE,135,0.0,1.6,36,0.00,,,0.00,WUHU216HW,2013-02-03 11:19:00,
2013-02-03 04:20:00,48.6,23.3,30.03,ESE,113,0.0,1.6,37,0.00,,,0.00,WUHU216HW,2013-02-03 11:20:00,
2013-02-03 04:21:00,48.6,23.3,30.04,ESE,113,0.0,1.6,37,0.00,,,0.00,WUHU216HW,2013-02-03 11:21:00,
2013-02-03 04:23:00,48.6,22.7,30.03,East,90,0.9,1.6,36,0.00,,,0.00,WUHU216HW,2013-02-03 11:23:00,
2013-02-03 04:24:00,48.6,22.7,30.03,ENE,68,0.7,1.6,36,0.00,,,0.00,WUHU216HW,2013-02-03 11:24:00,
2013-02-03 04:25:00,48.6,22.7,30.03,ENE,68,0.7,1.6,36,0.00,,,0.00,WUHU216HW,2013-02-03 11:25:00,
2013-02-03 04:26:00,48.6,22.7,30.03,ESE,113,1.1,1.6,36,0.00,,,0.00,WUHU216HW,2013-02-03 11:26:00,
2013-02-03 04:28:00,48.6,23.3,30.03,South,180,1.3,3.4,37,0.00,,,0.00,WUHU216HW,2013-02-03 11:28:00,
2013-02-03 04:29:00,48.6,23.3,30.03,SSW,203,1.1,3.4,37,0.00,,,0.00,WUHU216HW,2013-02-03 11:29:00,
2013-02-03 04:30:00,48.6,23.3,30.03,SSW,203,0.7,3.4,37,0.00,,,0.00,WUHU216HW,2013-02-03 11:30:00,
2013-02-03 04:31:00,48.4,23.9,30.03,SSW,203,1.8,3.4,38,0.00,,,0.00,WUHU216HW,2013-02-03 11:31:00,
2013-02-03 04:33:00,48.2,23.7,30.03,SSW,203,2.5,3.4,38,0.00,,,0.00,WUHU216HW,2013-02-03 11:33:00,
2013-02-03 04:35:00,48.2,23.7,30.03,South,180,2.0,3.4,38,0.00,,,0.00,WUHU216HW,2013-02-03 11:35:00,
2013-02-03 04:37:00,47.9,23.4,30.03,South,180,2.5,3.4,38,0.00,,,0.00,WUHU216HW,2013-02-03 11:37:00,
2013-02-03 04:38:00,47.9,23.4,30.03,South,180,2.5,3.4,38,0.00,,,0.00,WUHU216HW,2013-02-03 11:38:00,
2013-02-03 04:40:00,47.7,23.2,30.03,South,180,1.8,3.4,38,0.00,,,0.00,WUHU216HW,2013-02-03 11:40:00,
2013-02-03 04:41:00,47.7,23.2,30.03,South,180,2.2,3.4,38,0.00,,,0.00,WUHU216HW,2013-02-03 11:41:00,
2013-02-03 04:42:00,47.5,23.0,30.03,South,180,2.9,3.4,38,0.00,,,0.00,WUHU216HW,2013-02-03 11:42:00,
2013-02-03 04:44:00,47.5,23.0,30.03,SSE,158,2.5,3.4,38,0.00,,,0.00,WUHU216HW,2013-02-03 11:44:00,
2013-02-03 04:45:00,47.5,23.0,30.03,SSE,158,2.0,3.4,38,0.00,,,0.00,WUHU216HW,2013-02-03 11:45:00,
2013-02-03 04:46:00,47.5,23.0,30.03,SSE,158,2.0,3.4,38,0.00,,,0.00,WUHU216HW,2013-02-03 11:46:00,
2013-02-03 04:47:00,47.5,23.0,30.02,SSE,158,2.0,3.4,38,0.00,,,0.00,WUHU216HW,2013-02-03 11:47:00,
2013-02-03 04:49:00,47.5,23.0,30.02,SSE,158,3.1,3.1,38,0.00,,,0.00,WUHU216HW,2013-02-03 11:49:00,
2013-02-03 04:50:00,47.5,23.0,30.02,SSE,158,2.7,3.4,38,0.00,,,0.00,WUHU216HW,2013-02-03 11:50:00,
2013-02-03 04:51:00,47.5,23.0,30.02,SSE,158,3.1,3.4,38,0.00,,,0.00,WUHU216HW,2013-02-03 11:51:00,
2013-02-03 04:52:00,47.5,23.0,30.02,South,180,3.4,3.4,38,0.00,,,0.00,WUHU216HW,2013-02-03 11:52:00,
2013-02-03 04:54:00,47.5,23.0,30.02,South,180,2.2,3.4,38,0.00,,,0.00,WUHU216HW,2013-02-03 11:54:00,
2013-02-03 04:56:00,47.7,23.2,30.02,South,180,2.5,3.4,38,0.00,,,0.00,WUHU216HW,2013-02-03 11:56:00,
2013-02-03 04:57:00,47.7,23.9,30.02,SSE,158,1.8,3.4,39,0.00,,,0.00,WUHU216HW,2013-02-03 11:57:00,
2013-02-03 04:59:00,47.7,24.6,30.02,SSW,203,0.7,3.4,40,0.00,,,0.00,WUHU216HW,2013-02-03 11:59:00,
2013-02-03 05:01:00,47.7,24.6,30.02,SSW,203,1.1,3.4,40,0.00,,,0.00,WUHU216HW,2013-02-03 12:01:00,
2013-02-03 05:02:00,47.7,24.6,30.02,SSW,203,0.9,3.4,40,0.00,,,0.00,WUHU216HW,2013-02-03 12:02:00,
2013-02-03 05:04:00,47.7,25.1,30.02,SSW,203,1.3,2.9,41,0.00,,,0.00,WUHU216HW,2013-02-03 12:04:00,
2013-02-03 05:06:00,47.5,24.9,30.02,SSE,158,1.3,2.7,41,0.00,,,0.00,WUHU216HW,2013-02-03 12:06:00,
2013-02-03 05:07:00,47.5,24.9,30.02,SSE,158,1.8,2.0,41,0.00,,,0.00,WUHU216HW,2013-02-03 12:07:00,
2013-02-03 05:09:00,47.5,24.4,30.02,SE,135,0.9,1.8,40,0.00,,,0.00,WUHU216HW,2013-02-03 12:09:00,
2013-02-03 05:11:00,47.5,24.4,30.02,South,180,1.3,1.8,40,0.00,,,0.00,WUHU216HW,2013-02-03 12:11:00,
2013-02-03 05:12:00,47.7,24.6,30.02,SSE,158,2.2,2.2,40,0.00,,,0.00,WUHU216HW,2013-02-03 12:12:00,
2013-02-03 05:14:00,47.5,24.9,30.02,SE,135,1.8,2.2,41,0.00,,,0.00,WUHU216HW,2013-02-03 12:14:00,
2013-02-03 05:16:00,47.5,24.9,30.02,SE,135,2.0,2.5,41,0.00,,,0.00,WUHU216HW,2013-02-03 12:16:00,
2013-02-03 05:17:00,47.5,24.4,30.02,SE,135,2.0,2.5,40,0.00,,,0.00,WUHU216HW,2013-02-03 12:17:00,
2013-02-03 05:19:00,47.5,24.4,30.02,ESE,113,2.5,2.5,40,0.00,,,0.00,WUHU216HW,2013-02-03 12:19:00,
2013-02-03 05:21:00,47.5,24.4,30.02,SE,135,1.8,2.5,40,0.00,,,0.00,WUHU216HW,2013-02-03 12:21:00,
2013-02-03 05:22:00,47.5,24.4,30.02,SE,135,1.8,2.5,40,0.00,,,0.00,WUHU216HW,2013-02-03 12:22:00,
2013-02-03 05:23:00,47.5,24.4,30.02,ESE,113,2.0,2.5,40,0.00,,,0.00,WUHU216HW,2013-02-03 12:23:00,
2013-02-03 05:24:00,47.5,24.4,30.02,SE,135,2.0,2.5,40,0.00,,,0.00,WUHU216HW,2013-02-03 12:24:00,
2013-02-03 05:26:00,47.5,24.4,30.02,SE,135,1.6,2.5,40,0.00,,,0.00,WUHU216HW,2013-02-03 12:26:00,
2013-02-03 05:27:00,47.5,23.7,30.02,SSE,158,1.8,2.5,39,0.00,,,0.00,WUHU216HW,2013-02-03 12:27:00,
2013-02-03 05:28:00,47.5,23.7,30.02,SSE,158,1.8,2.5,39,0.00,,,0.00,WUHU216HW,2013-02-03 12:28:00,
2013-02-03 05:30:00,47.5,23.7,30.02,SSE,158,1.1,2.5,39,0.00,,,0.00,WUHU216HW,2013-02-03 12:30:00,
2013-02-03 05:31:00,47.5,23.7,30.02,SE,135,1.1,2.5,39,0.00,,,0.00,WUHU216HW,2013-02-03 12:31:00,
2013-02-03 05:32:00,47.7,23.9,30.02,SE,135,1.6,2.5,39,0.00,,,0.00,WUHU216HW,2013-02-03 12:32:00,
2013-02-03 05:33:00,47.7,23.9,30.02,SSE,158,2.0,2.5,39,0.00,,,0.00,WUHU216HW,2013-02-03 12:33:00,
2013-02-03 05:35:00,47.7,23.9,30.02,SE,135,2.0,2.5,39,0.00,,,0.00,WUHU216HW,2013-02-03 12:35:00,
2013-02-03 05:36:00,47.7,23.9,30.02,SSE,158,2.9,2.9,39,0.00,,,0.00,WUHU216HW,2013-02-03 12:36:00,
2013-02-03 05:37:00,47.7,23.9,30.02,SSE,158,2.5,2.9,39,0.00,,,0.00,WUHU216HW,2013-02-03 12:37:00,
2013-02-03 05:38:00,47.7,23.9,30.02,SSE,158,2.7,3.1,39,0.00,,,0.00,WUHU216HW,2013-02-03 12:38:00,
2013-02-03 05:40:00,47.7,23.9,30.02,SE,135,2.5,3.1,39,0.00,,,0.00,WUHU216HW,2013-02-03 12:40:00,
2013-02-03 05:41:00,47.7,23.9,30.02,SSE,158,4.7,4.7,39,0.00,,,0.00,WUHU216HW,2013-02-03 12:41:00,
2013-02-03 05:43:00,47.9,24.0,30.02,SSE,158,5.1,5.4,39,0.00,,,0.00,WUHU216HW,2013-02-03 12:43:00,
2013-02-03 05:45:00,47.9,24.0,30.02,SSE,158,5.4,6.3,39,0.00,,,0.00,WUHU216HW,2013-02-03 12:45:00,
2013-02-03 05:46:00,47.9,24.0,30.02,South,180,4.9,6.3,39,0.00,,,0.00,WUHU216HW,2013-02-03 12:46:00,
2013-02-03 05:48:00,48.1,23.5,30.02,South,180,4.5,6.3,38,0.00,,,0.00,WUHU216HW,2013-02-03 12:48:00,
2013-02-03 05:50:00,48.2,23.7,30.02,South,180,4.3,6.3,38,0.00,,,0.00,WUHU216HW,2013-02-03 12:50:00,
2013-02-03 05:51:00,48.4,23.9,30.02,South,180,4.7,6.3,38,0.00,,,0.00,WUHU216HW,2013-02-03 12:51:00,
2013-02-03 05:53:00,48.4,23.9,30.02,SSW,203,4.5,6.3,38,0.00,,,0.00,WUHU216HW,2013-02-03 12:53:00,
2013-02-03 05:55:00,48.8,24.1,30.02,South,180,3.6,5.6,38,0.00,,,0.00,WUHU216HW,2013-02-03 12:55:00,
2013-02-03 05:56:00,48.8,24.1,30.02,SSE,158,3.1,5.6,38,0.00,,,0.00,WUHU216HW,2013-02-03 12:56:00,
2013-02-03 05:58:00,49.0,24.3,30.02,SSW,203,4.0,5.4,38,0.00,,,0.00,WUHU216HW,2013-02-03 12:58:00,
2013-02-03 06:01:00,49.1,24.5,30.02,SSE,158,3.8,5.4,38,0.00,,,0.00,WUHU216HW,2013-02-03 13:01:00,
2013-02-03 06:03:00,49.1,23.8,30.02,South,180,4.7,4.7,37,0.00,,,0.00,WUHU216HW,2013-02-03 13:03:00,
2013-02-03 06:04:00,49.3,23.9,30.02,South,180,4.9,4.9,37,0.00,,,0.00,WUHU216HW,2013-02-03 13:04:00,
2013-02-03 06:06:00,49.3,23.9,30.02,South,180,5.1,5.1,37,0.00,,,0.00,WUHU216HW,2013-02-03 13:06:00,
2013-02-03 06:08:00,49.3,23.9,30.02,SSW,203,4.5,5.1,37,0.00,,,0.00,WUHU216HW,2013-02-03 13:08:00,
2013-02-03 06:09:00,49.5,24.1,30.01,SSW,203,5.4,5.4,37,0.00,,,0.00,WUHU216HW,2013-02-03 13:09:00,
2013-02-03 06:11:00,49.5,23.4,30.01,South,180,4.0,5.6,36,0.00,,,0.00,WUHU216HW,2013-02-03 13:11:00,
2013-02-03 06:13:00,49.7,23.6,30.01,SSW,203,4.3,5.6,36,0.00,,,0.00,WUHU216HW,2013-02-03 13:13:00,
2013-02-03 06:14:00,49.7,23.6,30.01,South,180,4.5,5.6,36,0.00,,,0.00,WUHU216HW,2013-02-03 13:14:00,
2013-02-03 06:16:00,49.7,23.6,30.01,South,180,4.5,5.6,36,0.00,,,0.00,WUHU216HW,2013-02-03 13:16:00,
2013-02-03 06:18:00,49.9,23.8,30.01,SSW,203,3.6,5.6,36,0.00,,,0.00,WUHU216HW,2013-02-03 13:18:00,
2013-02-03 06:19:00,49.9,23.8,30.01,South,180,4.9,5.6,36,0.00,,,0.00,WUHU216HW,2013-02-03 13:19:00,
2013-02-03 06:22:00,49.9,23.8,30.01,South,180,4.0,5.4,36,0.00,,,0.00,WUHU216HW,2013-02-03 13:22:00,
2013-02-03 06:23:00,49.9,23.8,30.01,South,180,5.1,5.1,36,0.00,,,0.00,WUHU216HW,2013-02-03 13:23:00,
2013-02-03 06:24:00,49.9,23.8,30.01,SSE,158,4.3,5.1,36,0.00,,,0.00,WUHU216HW,2013-02-03 13:24:00,
2013-02-03 06:27:00,49.9,23.8,30.01,South,180,3.8,5.4,36,0.00,,,0.00,WUHU216HW,2013-02-03 13:27:00,
2013-02-03 06:28:00,49.9,23.8,30.01,South,180,5.4,5.6,36,0.00,,,0.00,WUHU216HW,2013-02-03 13:28:00,
2013-02-03 06:29:00,49.9,23.0,30.01,South,180,3.6,5.6,35,0.00,,,0.00,WUHU216HW,2013-02-03 13:29:00,
2013-02-03 06:32:00,49.9,23.0,30.01,SSE,158,2.7,5.6,35,0.00,,,0.00,WUHU216HW,2013-02-03 13:32:00,
2013-02-03 06:33:00,49.9,23.0,30.01,SSE,158,3.1,5.6,35,0.00,,,0.00,WUHU216HW,2013-02-03 13:33:00,
2013-02-03 06:34:00,50.0,23.2,30.01,SE,135,1.3,5.6,35,0.00,,,0.00,WUHU216HW,2013-02-03 13:34:00,
2013-02-03 06:37:00,49.9,23.8,30.01,SSE,158,1.1,5.6,36,0.00,,,0.00,WUHU216HW,2013-02-03 13:37:00,
2013-02-03 06:38:00,50.0,24.0,30.01,South,180,1.3,5.4,36,0.00,,,0.00,WUHU216HW,2013-02-03 13:38:00,
2013-02-03 06:39:00,49.9,23.8,30.01,South,180,3.4,4.5,36,0.00,,,0.00,WUHU216HW,2013-02-03 13:39:00,
2013-02-03 06:43:00,49.9,23.8,30.01,South,180,2.7,4.0,36,0.00,,,0.00,WUHU216HW,2013-02-03 13:43:00,
2013-02-03 06:44:00,49.7,23.6,30.01,SSE,158,4.3,4.3,36,0.00,,,0.00,WUHU216HW,2013-02-03 13:44:00,
2013-02-03 06:48:00,49.7,23.6,30.02,East,90,1.8,4.3,36,0.00,,,0.00,WUHU216HW,2013-02-03 13:48:00,
2013-02-03 06:49:00,49.7,23.6,30.02,SE,135,2.5,4.3,36,0.00,,,0.00,WUHU216HW,2013-02-03 13:49:00,
2013-02-03 06:50:00,49.7,23.6,30.01,South,180,2.0,4.3,36,0.00,,,0.00,WUHU216HW,2013-02-03 13:50:00,
2013-02-03 06:53:00,49.5,23.4,30.02,SSE,158,1.8,4.3,36,0.00,,,0.00,WUHU216HW,2013-02-03 13:53:00,
2013-02-03 06:54:00,49.5,23.4,30.02,SSE,158,2.2,4.3,36,0.00,,,0.00,WUHU216HW,2013-02-03 13:54:00,
2013-02-03 06:55:00,49.5,23.4,30.02,SSE,158,2.2,3.6,36,0.00,,,0.00,WUHU216HW,2013-02-03 13:55:00,
2013-02-03 06:58:00,49.3,23.3,30.01,SSE,158,2.2,3.8,36,0.00,,,0.00,WUHU216HW,2013-02-03 13:58:00,
2013-02-03 06:59:00,49.3,23.3,30.01,SSE,158,3.1,3.8,36,0.00,,,0.00,WUHU216HW,2013-02-03 13:59:00,
2013-02-03 07:00:00,49.3,23.3,30.01,South,180,2.5,3.8,36,0.00,,,0.00,WUHU216HW,2013-02-03 14:00:00,
2013-02-03 07:03:00,49.3,23.3,30.02,South,180,4.0,4.0,36,0.00,,,0.00,WUHU216HW,2013-02-03 14:03:00,
2013-02-03 07:04:00,49.3,23.3,30.02,South,180,3.8,4.0,36,0.00,,,0.00,WUHU216HW,2013-02-03 14:04:00,
2013-02-03 07:05:00,49.3,23.3,30.02,SSW,203,2.9,4.0,36,0.00,,,0.00,WUHU216HW,2013-02-03 14:05:00,
2013-02-03 07:06:00,49.5,23.4,30.02,SSW,203,2.9,4.0,36,0.00,,,0.00,WUHU216HW,2013-02-03 14:06:00,
2013-02-03 07:08:00,49.5,23.4,30.01,South,180,3.1,4.0,36,0.00,,,0.00,WUHU216HW,2013-02-03 14:08:00,
2013-02-03 07:10:00,49.5,23.4,30.02,South,180,4.5,4.7,36,0.00,,,0.00,WUHU216HW,2013-02-03 14:10:00,
2013-02-03 07:11:00,49.5,23.4,30.02,SSW,203,4.7,4.7,36,0.00,,,0.00,WUHU216HW,2013-02-03 14:11:00,
2013-02-03 07:14:00,49.5,23.4,30.02,South,180,4.0,4.7,36,0.00,,,0.00,WUHU216HW,2013-02-03 14:14:00,
2013-02-03 07:15:00,49.7,23.6,30.02,SSE,158,4.7,4.7,36,0.00,,,0.00,WUHU216HW,2013-02-03 14:15:00,
2013-02-03 07:16:00,49.7,23.6,30.01,SSW,203,4.0,4.7,36,0.00,,,0.00,WUHU216HW,2013-02-03 14:16:00,
2013-02-03 07:19:00,49.7,23.6,30.02,SSW,203,4.9,4.9,36,0.00,,,0.00,WUHU216HW,2013-02-03 14:19:00,
2013-02-03 07:20:00,49.7,23.6,30.02,SSW,203,4.9,5.4,36,0.00,,,0.00,WUHU216HW,2013-02-03 14:20:00,
2013-02-03 07:21:00,49.9,23.8,30.02,South,180,4.7,5.4,36,0.00,,,0.00,WUHU216HW,2013-02-03 14:21:00,
2013-02-03 07:24:00,49.9,23.8,30.02,South,180,4.9,5.4,36,0.00,,,0.00,WUHU216HW,2013-02-03 14:24:00,
2013-02-03 07:26:00,50.0,24.0,30.02,South,180,4.0,5.4,36,0.00,,,0.00,WUHU216HW,2013-02-03 14:26:00,
2013-02-03 07:29:00,50.0,23.2,30.02,South,180,3.1,5.4,35,0.00,,,0.00,WUHU216HW,2013-02-03 14:29:00,
2013-02-03 07:31:00,50.0,22.5,30.02,South,180,2.5,5.4,34,0.00,,,0.00,WUHU216HW,2013-02-03 14:31:00,
2013-02-03 07:34:00,50.2,22.7,30.02,SSE,158,3.8,4.7,34,0.00,,,0.00,WUHU216HW,2013-02-03 14:34:00,
2013-02-03 07:36:00,50.2,22.7,30.02,SSE,158,4.0,4.0,34,0.00,,,0.00,WUHU216HW,2013-02-03 14:36:00,
2013-02-03 07:37:00,50.2,22.7,30.02,SSE,158,3.4,4.0,34,0.00,,,0.00,WUHU216HW,2013-02-03 14:37:00,
2013-02-03 07:39:00,50.4,22.9,30.02,SSE,158,2.9,4.5,34,0.00,,,0.00,WUHU216HW,2013-02-03 14:39:00,
2013-02-03 07:41:00,50.6,23.1,30.02,SSE,158,3.6,4.5,34,0.00,,,0.00,WUHU216HW,2013-02-03 14:41:00,
2013-02-03 07:42:00,50.6,23.1,30.02,SE,135,2.5,4.5,34,0.00,,,0.00,WUHU216HW,2013-02-03 14:42:00,
2013-02-03 07:45:00,50.6,23.1,30.02,SSE,158,3.1,4.5,34,0.00,,,0.00,WUHU216HW,2013-02-03 14:45:00,
2013-02-03 07:46:00,50.8,23.2,30.02,SSE,158,2.5,4.5,34,0.00,,,0.00,WUHU216HW,2013-02-03 14:46:00,
2013-02-03 07:47:00,50.8,23.2,30.02,SSE,158,3.1,4.5,34,0.00,,,0.00,WUHU216HW,2013-02-03 14:47:00,
2013-02-03 07:50:00,50.8,23.2,30.02,South,180,3.8,4.3,34,0.00,,,0.00,WUHU216HW,2013-02-03 14:50:00,
2013-02-03 07:51:00,50.9,23.3,30.02,South,180,3.4,4.0,34,0.00,,,0.00,WUHU216HW,2013-02-03 14:51:00,
2013-02-03 07:52:00,50.8,23.2,30.02,South,180,3.4,4.0,34,0.00,,,0.00,WUHU216HW,2013-02-03 14:52:00,
2013-02-03 07:55:00,51.1,23.5,30.02,SSE,158,3.1,3.8,34,0.00,,,0.00,WUHU216HW,2013-02-03 14:55:00,
2013-02-03 07:57:00,51.1,23.5,30.02,SSE,158,2.5,3.8,34,0.00,,,0.00,WUHU216HW,2013-02-03 14:57:00,
2013-02-03 08:00:00,51.3,23.7,30.02,SSE,158,3.1,3.8,34,0.00,,,0.00,WUHU216HW,2013-02-03 15:00:00,
2013-02-03 08:02:00,51.3,23.7,30.02,South,180,2.7,4.0,34,0.00,,,0.00,WUHU216HW,2013-02-03 15:02:00,
2013-02-03 08:05:00,51.5,23.9,30.02,South,180,4.0,4.0,34,0.00,,,0.00,WUHU216HW,2013-02-03 15:05:00,
2013-02-03 08:07:00,51.5,23.9,30.02,SSE,158,3.4,4.0,34,0.00,,,0.00,WUHU216HW,2013-02-03 15:07:00,
2013-02-03 08:08:00,51.5,23.9,30.02,SE,135,3.4,4.7,34,0.00,,,0.00,WUHU216HW,2013-02-03 15:08:00,
2013-02-03 08:10:00,51.7,24.0,30.02,SSE,158,2.5,4.7,34,0.00,,,0.00,WUHU216HW,2013-02-03 15:10:00,
2013-02-03 08:12:00,51.7,24.0,30.02,SE,135,4.5,4.7,34,0.00,,,0.00,WUHU216HW,2013-02-03 15:12:00,
2013-02-03 08:13:00,51.7,24.0,30.02,SSE,158,2.7,4.7,34,0.00,,,0.00,WUHU216HW,2013-02-03 15:13:00,
2013-02-03 08:16:00,51.8,24.1,30.02,South,180,3.8,4.7,34,0.00,,,0.00,WUHU216HW,2013-02-03 15:16:00,
2013-02-03 08:17:00,51.8,23.5,30.02,SE,135,3.4,5.1,33,0.00,,,0.00,WUHU216HW,2013-02-03 15:17:00,
2013-02-03 08:18:00,51.8,24.1,30.02,SE,135,6.3,6.3,34,0.00,,,0.00,WUHU216HW,2013-02-03 15:18:00,
2013-02-03 08:21:00,52.0,23.7,30.02,SE,135,3.1,6.3,33,0.00,,,0.00,WUHU216HW,2013-02-03 15:21:00,
2013-02-03 08:22:00,52.0,23.7,30.02,SSE,158,2.5,6.3,33,0.00,,,0.00,WUHU216HW,2013-02-03 15:22:00,
2013-02-03 08:23:00,52.2,23.8,30.02,SE,135,5.8,6.3,33,0.00,,,0.00,WUHU216HW,2013-02-03 15:23:00,
2013-02-03 08:26:00,52.2,23.8,30.02,SE,135,4.0,6.3,33,0.00,,,0.00,WUHU216HW,2013-02-03 15:26:00,
2013-02-03 08:27:00,52.2,23.8,30.02,ESE,113,4.3,6.3,33,0.00,,,0.00,WUHU216HW,2013-02-03 15:27:00,
2013-02-03 08:28:00,52.2,23.8,30.02,SE,135,6.3,6.3,33,0.00,,,0.00,WUHU216HW,2013-02-03 15:28:00,
2013-02-03 08:31:00,52.6,24.1,30.02,SSE,158,5.8,6.9,33,0.00,,,0.00,WUHU216HW,2013-02-03 15:31:00,
2013-02-03 08:32:00,52.6,24.1,30.02,SSE,158,3.1,6.9,33,0.00,,,0.00,WUHU216HW,2013-02-03 15:32:00,
2013-02-03 08:33:00,52.6,24.1,30.02,SSE,158,4.9,6.9,33,0.00,,,0.00,WUHU216HW,2013-02-03 15:33:00,
2013-02-03 08:36:00,52.9,24.5,30.02,ESE,113,4.9,6.9,33,0.00,,,0.00,WUHU216HW,2013-02-03 15:36:00,
2013-02-03 08:37:00,52.9,24.5,30.02,South,180,4.0,6.9,33,0.00,,,0.00,WUHU216HW,2013-02-03 15:37:00,
2013-02-03 08:38:00,52.9,24.5,30.02,ESE,113,4.7,6.9,33,0.00,,,0.00,WUHU216HW,2013-02-03 15:38:00,
2013-02-03 08:41:00,53.1,24.0,30.02,SSE,158,4.0,6.9,32,0.00,,,0.00,WUHU216HW,2013-02-03 15:41:00,
2013-02-03 08:42:00,53.1,24.0,30.02,South,180,2.9,6.9,32,0.00,,,0.00,WUHU216HW,2013-02-03 15:42:00,
2013-02-03 08:43:00,53.1,24.0,30.02,SSE,158,5.6,6.9,32,0.00,,,0.00,WUHU216HW,2013-02-03 15:43:00,
2013-02-03 08:47:00,53.3,23.4,30.02,SSE,158,3.1,8.5,31,0.00,,,0.00,WUHU216HW,2013-02-03 15:47:00,
2013-02-03 08:48:00,53.6,23.8,30.02,SE,135,2.7,8.5,31,0.00,,,0.00,WUHU216HW,2013-02-03 15:48:00,
2013-02-03 08:49:00,53.6,23.8,30.02,SSE,158,2.5,8.5,31,0.00,,,0.00,WUHU216HW,2013-02-03 15:49:00,
2013-02-03 08:52:00,53.6,23.8,30.02,SSE,158,4.5,8.5,31,0.00,,,0.00,WUHU216HW,2013-02-03 15:52:00,
2013-02-03 08:53:00,53.6,23.8,30.02,SSE,158,3.1,8.5,31,0.00,,,0.00,WUHU216HW,2013-02-03 15:53:00,
2013-02-03 08:54:00,53.8,23.9,30.02,SSE,158,6.3,6.7,31,0.00,,,0.00,WUHU216HW,2013-02-03 15:54:00,
2013-02-03 08:57:00,53.8,23.9,30.02,SE,135,4.7,6.3,31,0.00,,,0.00,WUHU216HW,2013-02-03 15:57:00,
2013-02-03 08:58:00,53.8,23.9,30.02,SSE,158,4.0,6.3,31,0.00,,,0.00,WUHU216HW,2013-02-03 15:58:00,
2013-02-03 08:59:00,54.0,24.0,30.02,SSE,158,3.8,6.3,31,0.00,,,0.00,WUHU216HW,2013-02-03 15:59:00,
2013-02-03 09:02:00,54.0,24.0,30.02,SE,135,2.9,6.3,31,0.00,,,0.00,WUHU216HW,2013-02-03 16:02:00,
2013-02-03 09:03:00,54.0,24.0,30.02,SSE,158,4.3,6.3,31,0.00,,,0.00,WUHU216HW,2013-02-03 16:03:00,
2013-02-03 09:04:00,54.0,24.0,30.02,South,180,2.2,5.4,31,0.00,,,0.00,WUHU216HW,2013-02-03 16:04:00,
2013-02-03 09:07:00,54.2,24.1,30.02,SSE,158,4.0,5.1,31,0.00,,,0.00,WUHU216HW,2013-02-03 16:07:00,
2013-02-03 09:08:00,54.2,24.1,30.02,SSE,158,5.6,5.6,31,0.00,,,0.00,WUHU216HW,2013-02-03 16:08:00,
2013-02-03 09:09:00,54.2,24.1,30.02,SSE,158,5.1,5.6,31,0.00,,,0.00,WUHU216HW,2013-02-03 16:09:00,
2013-02-03 09:13:00,54.2,24.1,30.02,SSE,158,4.5,5.8,31,0.00,,,0.00,WUHU216HW,2013-02-03 16:13:00,
2013-02-03 09:14:00,54.2,24.1,30.02,SSE,158,4.7,5.8,31,0.00,,,0.00,WUHU216HW,2013-02-03 16:14:00,
2013-02-03 09:18:00,54.4,24.3,30.02,SSE,158,4.7,5.8,31,0.00,,,0.00,WUHU216HW,2013-02-03 16:18:00,
2013-02-03 09:19:00,54.4,24.3,30.01,SSE,158,5.4,5.8,31,0.00,,,0.00,WUHU216HW,2013-02-03 16:19:00,
2013-02-03 09:20:00,54.4,24.3,30.01,ESE,113,5.4,5.8,31,0.00,,,0.00,WUHU216HW,2013-02-03 16:20:00,
2013-02-03 09:23:00,54.7,24.6,30.01,ESE,113,6.0,6.0,31,0.00,,,0.00,WUHU216HW,2013-02-03 16:23:00,
2013-02-03 09:24:00,54.5,24.5,30.01,SE,135,6.9,6.9,31,0.00,,,0.00,WUHU216HW,2013-02-03 16:24:00,
2013-02-03 09:25:00,54.7,24.6,30.01,SSE,158,4.0,6.9,31,0.00,,,0.00,WUHU216HW,2013-02-03 16:25:00,
2013-02-03 09:28:00,54.7,24.6,30.01,SSE,158,6.0,8.1,31,0.00,,,0.00,WUHU216HW,2013-02-03 16:28:00,
2013-02-03 09:30:00,54.7,24.0,30.01,SE,135,4.0,8.5,30,0.00,,,0.00,WUHU216HW,2013-02-03 16:30:00,
2013-02-03 09:33:00,54.9,24.0,30.01,SSE,158,6.3,8.5,30,0.00,,,0.00,WUHU216HW,2013-02-03 16:33:00,
2013-02-03 09:34:00,55.1,24.2,30.01,SSE,158,6.3,8.5,30,0.00,,,0.00,WUHU216HW,2013-02-03 16:34:00,
2013-02-03 09:35:00,55.1,24.2,30.01,SE,135,5.6,8.5,30,0.00,,,0.00,WUHU216HW,2013-02-03 16:35:00,
2013-02-03 09:38:00,55.1,24.2,30.02,SE,135,7.6,8.5,30,0.00,,,0.00,WUHU216HW,2013-02-03 16:38:00,
2013-02-03 09:39:00,55.1,24.9,30.02,SSE,158,6.7,8.5,31,0.00,,,0.00,WUHU216HW,2013-02-03 16:39:00,
2013-02-03 09:40:00,55.1,24.2,30.02,SE,135,5.8,7.6,30,0.00,,,0.00,WUHU216HW,2013-02-03 16:40:00,
2013-02-03 09:41:00,55.1,24.2,30.02,East,90,4.0,7.6,30,0.00,,,0.00,WUHU216HW,2013-02-03 16:41:00,
2013-02-03 09:43:00,55.1,24.2,30.02,SE,135,4.0,7.6,30,0.00,,,0.00,WUHU216HW,2013-02-03 16:43:00,
2013-02-03 09:44:00,55.1,24.2,30.02,SSE,158,4.0,7.6,30,0.00,,,0.00,WUHU216HW,2013-02-03 16:44:00,
2013-02-03 09:45:00,55.1,24.2,30.02,South,180,4.0,7.6,30,0.00,,,0.00,WUHU216HW,2013-02-03 16:45:00,
2013-02-03 09:46:00,55.3,24.3,30.02,SSE,158,4.0,7.6,30,0.00,,,0.00,WUHU216HW,2013-02-03 16:46:00,
2013-02-03 09:48:00,55.3,24.3,30.02,South,180,4.7,6.9,30,0.00,,,0.00,WUHU216HW,2013-02-03 16:48:00,
2013-02-03 09:49:00,55.3,24.3,30.02,South,180,4.7,6.9,30,0.00,,,0.00,WUHU216HW,2013-02-03 16:49:00,
2013-02-03 09:50:00,55.4,24.5,30.03,SE,135,4.0,6.3,30,0.00,,,0.00,WUHU216HW,2013-02-03 16:50:00,
2013-02-03 09:51:00,55.4,24.5,30.03,South,180,4.9,5.6,30,0.00,,,0.00,WUHU216HW,2013-02-03 16:51:00,
2013-02-03 09:54:00,55.6,24.7,30.03,SSE,158,3.6,5.4,30,0.00,,,0.00,WUHU216HW,2013-02-03 16:54:00,
2013-02-03 09:55:00,55.6,24.7,30.03,South,180,3.8,5.4,30,0.00,,,0.00,WUHU216HW,2013-02-03 16:55:00,
2013-02-03 09:56:00,55.6,24.7,30.03,SSE,158,4.7,5.4,30,0.00,,,0.00,WUHU216HW,2013-02-03 16:56:00,
2013-02-03 09:59:00,55.8,24.9,30.03,SSE,158,2.7,5.6,30,0.00,,,0.00,WUHU216HW,2013-02-03 16:59:00,
2013-02-03 10:00:00,55.8,24.9,30.03,South,180,3.1,5.6,30,0.00,,,0.00,WUHU216HW,2013-02-03 17:00:00,
2013-02-03 10:01:00,55.8,24.9,30.04,SSE,158,4.0,5.6,30,0.00,,,0.00,WUHU216HW,2013-02-03 17:01:00,
2013-02-03 10:04:00,56.0,24.9,30.04,SSW,203,4.0,5.6,30,0.00,,,0.00,WUHU216HW,2013-02-03 17:04:00,
2013-02-03 10:05:00,56.2,25.1,30.04,South,180,4.0,5.6,30,0.00,,,0.00,WUHU216HW,2013-02-03 17:05:00,
2013-02-03 10:07:00,56.2,25.1,30.04,South,180,4.3,5.6,30,0.00,,,0.00,WUHU216HW,2013-02-03 17:07:00,
2013-02-03 10:09:00,56.3,25.3,30.04,South,180,4.7,5.8,30,0.00,,,0.00,WUHU216HW,2013-02-03 17:09:00,
2013-02-03 10:10:00,56.3,25.3,30.04,SSW,203,3.8,5.8,30,0.00,,,0.00,WUHU216HW,2013-02-03 17:10:00,
2013-02-03 10:12:00,56.5,24.5,30.04,South,180,5.8,5.8,29,0.00,,,0.00,WUHU216HW,2013-02-03 17:12:00,
2013-02-03 10:14:00,56.5,24.5,30.04,SE,135,4.5,5.8,29,0.00,,,0.00,WUHU216HW,2013-02-03 17:14:00,
2013-02-03 10:15:00,56.7,24.7,30.03,SSE,158,2.7,5.8,29,0.00,,,0.00,WUHU216HW,2013-02-03 17:15:00,
2013-02-03 10:17:00,56.7,24.7,30.03,South,180,2.2,5.8,29,0.00,,,0.00,WUHU216HW,2013-02-03 17:17:00,
2013-02-03 10:19:00,57.1,25.0,30.03,SE,135,4.7,5.8,29,0.00,,,0.00,WUHU216HW,2013-02-03 17:19:00,
2013-02-03 10:20:00,57.1,25.0,30.03,SE,135,4.7,5.8,29,0.00,,,0.00,WUHU216HW,2013-02-03 17:20:00,
2013-02-03 10:21:00,57.1,25.0,30.03,SE,135,2.5,5.8,29,0.00,,,0.00,WUHU216HW,2013-02-03 17:21:00,
2013-02-03 10:22:00,57.1,25.0,30.03,ESE,113,2.0,5.1,29,0.00,,,0.00,WUHU216HW,2013-02-03 17:22:00,
2013-02-03 10:24:00,57.2,25.1,30.03,SE,135,4.9,5.1,29,0.00,,,0.00,WUHU216HW,2013-02-03 17:24:00,
2013-02-03 10:25:00,57.2,25.1,30.03,SE,135,4.9,5.1,29,0.00,,,0.00,WUHU216HW,2013-02-03 17:25:00,
2013-02-03 10:26:00,57.2,25.1,30.03,SSE,158,4.5,5.1,29,0.00,,,0.00,WUHU216HW,2013-02-03 17:26:00,
2013-02-03 10:27:00,57.4,25.3,30.03,SSE,158,2.7,4.9,29,0.00,,,0.00,WUHU216HW,2013-02-03 17:27:00,
2013-02-03 10:29:00,57.6,25.5,30.03,SSE,158,4.5,5.4,29,0.00,,,0.00,WUHU216HW,2013-02-03 17:29:00,
2013-02-03 10:30:00,57.6,25.5,30.03,SE,135,5.4,5.4,29,0.00,,,0.00,WUHU216HW,2013-02-03 17:30:00,
2013-02-03 10:31:00,57.6,25.5,30.04,SSE,158,1.1,5.4,29,0.00,,,0.00,WUHU216HW,2013-02-03 17:31:00,
2013-02-03 10:32:00,57.8,25.7,30.04,SE,135,3.8,5.4,29,0.00,,,0.00,WUHU216HW,2013-02-03 17:32:00,
2013-02-03 10:35:00,58.0,25.8,30.03,SE,135,4.0,6.3,29,0.00,,,0.00,WUHU216HW,2013-02-03 17:35:00,
2013-02-03 10:36:00,58.0,25.8,30.03,SSE,158,5.1,6.3,29,0.00,,,0.00,WUHU216HW,2013-02-03 17:36:00,
2013-02-03 10:37:00,58.0,25.8,30.03,SSE,158,5.6,6.3,29,0.00,,,0.00,WUHU216HW,2013-02-03 17:37:00,
2013-02-03 10:40:00,58.3,26.1,30.03,SSE,158,4.7,6.5,29,0.00,,,0.00,WUHU216HW,2013-02-03 17:40:00,
2013-02-03 10:41:00,58.3,26.1,30.03,SSE,158,5.4,6.5,29,0.00,,,0.00,WUHU216HW,2013-02-03 17:41:00,
2013-02-03 10:42:00,58.3,26.1,30.03,SSE,158,5.6,6.9,29,0.00,,,0.00,WUHU216HW,2013-02-03 17:42:00,
2013-02-03 10:45:00,58.7,25.5,30.03,SSE,158,5.6,6.9,28,0.00,,,0.00,WUHU216HW,2013-02-03 17:45:00,
2013-02-03 10:46:00,58.7,25.5,30.04,SSE,158,5.6,6.9,28,0.00,,,0.00,WUHU216HW,2013-02-03 17:46:00,
2013-02-03 10:47:00,58.7,25.5,30.04,ESE,113,4.0,6.9,28,0.00,,,0.00,WUHU216HW,2013-02-03 17:47:00,
2013-02-03 10:50:00,58.7,25.5,30.03,SE,135,4.7,6.9,28,0.00,,,0.00,WUHU216HW,2013-02-03 17:50:00,
2013-02-03 10:51:00,58.9,25.7,30.03,ESE,113,3.4,6.9,28,0.00,,,0.00,WUHU216HW,2013-02-03 17:51:00,
2013-02-03 10:52:00,58.9,25.7,30.03,SSE,158,3.1,6.3,28,0.00,,,0.00,WUHU216HW,2013-02-03 17:52:00,
2013-02-03 10:55:00,59.0,25.7,30.03,ESE,113,4.5,6.3,28,0.00,,,0.00,WUHU216HW,2013-02-03 17:55:00,
2013-02-03 10:56:00,59.0,25.7,30.03,ESE,113,3.8,6.3,28,0.00,,,0.00,WUHU216HW,2013-02-03 17:56:00,
2013-02-03 10:57:00,59.2,25.9,30.03,ESE,113,2.5,6.3,28,0.00,,,0.00,WUHU216HW,2013-02-03 17:57:00,
2013-02-03 11:00:00,59.2,25.9,30.03,SE,135,2.7,6.3,28,0.00,,,0.00,WUHU216HW,2013-02-03 18:00:00,
2013-02-03 11:01:00,59.2,25.9,30.03,SE,135,4.0,6.3,28,0.00,,,0.00,WUHU216HW,2013-02-03 18:01:00,
2013-02-03 11:02:00,59.2,25.9,30.03,ESE,113,2.5,6.3,28,0.00,,,0.00,WUHU216HW,2013-02-03 18:02:00,
2013-02-03 11:05:00,59.4,26.1,30.03,SE,135,6.9,6.9,28,0.00,,,0.00,WUHU216HW,2013-02-03 18:05:00,
2013-02-03 11:06:00,59.4,26.1,30.03,ESE,113,5.8,7.8,28,0.00,,,0.00,WUHU216HW,2013-02-03 18:06:00,
2013-02-03 11:07:00,59.4,26.1,30.03,SE,135,4.9,7.8,28,0.00,,,0.00,WUHU216HW,2013-02-03 18:07:00,
2013-02-03 11:10:00,59.4,25.1,30.03,East,90,4.0,7.8,27,0.00,,,0.00,WUHU216HW,2013-02-03 18:10:00,
2013-02-03 11:11:00,59.4,25.1,30.03,East,90,4.0,7.8,27,0.00,,,0.00,WUHU216HW,2013-02-03 18:11:00,
2013-02-03 11:12:00,59.4,25.1,30.03,ENE,68,3.4,7.8,27,0.00,,,0.00,WUHU216HW,2013-02-03 18:12:00,
2013-02-03 11:16:00,59.8,25.4,30.03,SE,135,5.6,7.8,27,0.00,,,0.00,WUHU216HW,2013-02-03 18:16:00,
2013-02-03 11:17:00,59.8,25.4,30.03,SE,135,6.3,6.3,27,0.00,,,0.00,WUHU216HW,2013-02-03 18:17:00,
2013-02-03 11:18:00,59.8,25.4,30.04,SE,135,6.7,6.7,27,0.00,,,0.00,WUHU216HW,2013-02-03 18:18:00,
2013-02-03 11:21:00,59.9,26.6,30.03,East,90,6.3,6.7,28,0.00,,,0.00,WUHU216HW,2013-02-03 18:21:00,
2013-02-03 11:22:00,59.9,26.6,30.03,SE,135,5.1,6.7,28,0.00,,,0.00,WUHU216HW,2013-02-03 18:22:00,
2013-02-03 11:23:00,59.9,26.6,30.03,SE,135,4.0,6.7,28,0.00,,,0.00,WUHU216HW,2013-02-03 18:23:00,
2013-02-03 11:26:00,60.1,26.6,30.03,SE,135,3.4,6.7,28,0.00,,,0.00,WUHU216HW,2013-02-03 18:26:00,
2013-02-03 11:27:00,59.9,26.6,30.03,SSE,158,3.8,6.7,28,0.00,,,0.00,WUHU216HW,2013-02-03 18:27:00,
2013-02-03 11:28:00,59.9,26.6,30.03,SE,135,3.4,6.3,28,0.00,,,0.00,WUHU216HW,2013-02-03 18:28:00,
2013-02-03 11:31:00,60.1,26.6,30.03,ESE,113,5.4,5.6,28,0.00,,,0.00,WUHU216HW,2013-02-03 18:31:00,
2013-02-03 11:32:00,60.1,26.6,30.03,SE,135,6.0,6.0,28,0.00,,,0.00,WUHU216HW,2013-02-03 18:32:00,
2013-02-03 11:33:00,60.1,26.6,30.03,SE,135,4.5,6.0,28,0.00,,,0.00,WUHU216HW,2013-02-03 18:33:00,
2013-02-03 11:36:00,59.9,26.6,30.03,ESE,113,4.0,6.0,28,0.00,,,0.00,WUHU216HW,2013-02-03 18:36:00,
2013-02-03 11:37:00,60.1,26.6,30.03,ESE,113,4.3,6.0,28,0.00,,,0.00,WUHU216HW,2013-02-03 18:37:00,
2013-02-03 11:38:00,60.1,26.6,30.02,ESE,113,6.3,6.3,28,0.00,,,0.00,WUHU216HW,2013-02-03 18:38:00,
2013-02-03 11:39:00,60.1,26.6,30.02,ESE,113,4.7,6.3,28,0.00,,,0.00,WUHU216HW,2013-02-03 18:39:00,
2013-02-03 11:41:00,60.1,26.6,30.01,ESE,113,5.4,6.5,28,0.00,,,0.00,WUHU216HW,2013-02-03 18:41:00,
2013-02-03 11:42:00,60.1,26.6,30.01,SE,135,4.9,6.5,28,0.00,,,0.00,WUHU216HW,2013-02-03 18:42:00,
2013-02-03 11:43:00,60.1,27.6,30.01,ESE,113,7.6,7.6,29,0.00,,,0.00,WUHU216HW,2013-02-03 18:43:00,
2013-02-03 11:44:00,60.1,26.6,30.01,SE,135,3.4,7.6,28,0.00,,,0.00,WUHU216HW,2013-02-03 18:44:00,
2013-02-03 11:46:00,60.1,27.6,30.01,SE,135,3.4,7.6,29,0.00,,,0.00,WUHU216HW,2013-02-03 18:46:00,
2013-02-03 11:47:00,60.1,27.6,30.01,SE,135,3.1,7.6,29,0.00,,,0.00,WUHU216HW,2013-02-03 18:47:00,
2013-02-03 11:48:00,60.1,27.6,30.01,SE,135,2.9,7.6,29,0.00,,,0.00,WUHU216HW,2013-02-03 18:48:00,
2013-02-03 11:49:00,60.1,27.6,30.01,SE,135,2.5,7.6,29,0.00,,,0.00,WUHU216HW,2013-02-03 18:49:00,
2013-02-03 11:52:00,60.3,27.8,30.01,SE,135,3.4,7.6,29,0.00,,,0.00,WUHU216HW,2013-02-03 18:52:00,
2013-02-03 11:53:00,60.5,27.9,30.01,SE,135,4.0,6.0,29,0.00,,,0.00,WUHU216HW,2013-02-03 18:53:00,
2013-02-03 11:54:00,60.5,27.9,30.01,SE,135,4.0,6.0,29,0.00,,,0.00,WUHU216HW,2013-02-03 18:54:00,
2013-02-03 11:57:00,60.5,27.9,30.01,ESE,113,2.7,5.6,29,0.00,,,0.00,WUHU216HW,2013-02-03 18:57:00,
2013-02-03 11:58:00,60.7,28.1,30.01,ENE,68,3.8,5.6,29,0.00,,,0.00,WUHU216HW,2013-02-03 18:58:00,
2013-02-03 11:59:00,60.7,28.1,30.01,ENE,68,2.9,5.6,29,0.00,,,0.00,WUHU216HW,2013-02-03 18:59:00,
2013-02-03 12:02:00,60.8,28.2,30.01,East,90,3.1,4.5,29,0.00,,,0.00,WUHU216HW,2013-02-03 19:02:00,
2013-02-03 12:03:00,61.0,28.4,30.01,ESE,113,2.5,4.5,29,0.00,,,0.00,WUHU216HW,2013-02-03 19:03:00,
2013-02-03 12:04:00,61.2,28.5,30.01,ESE,113,2.2,4.3,29,0.00,,,0.00,WUHU216HW,2013-02-03 19:04:00,
2013-02-03 12:07:00,61.4,28.7,30.01,SE,135,2.5,4.3,29,0.00,,,0.00,WUHU216HW,2013-02-03 19:07:00,
2013-02-03 12:09:00,61.6,28.9,30.00,SE,135,2.5,4.3,29,0.00,,,0.00,WUHU216HW,2013-02-03 19:09:00,
2013-02-03 12:10:00,61.6,29.8,30.01,South,180,4.0,4.3,30,0.00,,,0.00,WUHU216HW,2013-02-03 19:10:00,
2013-02-03 12:12:00,61.7,29.0,30.01,East,90,0.4,4.3,29,0.00,,,0.00,WUHU216HW,2013-02-03 19:12:00,
2013-02-03 12:14:00,61.9,29.2,30.01,NE,45,1.8,4.0,29,0.00,,,0.00,WUHU216HW,2013-02-03 19:14:00,
2013-02-03 12:15:00,61.9,29.2,30.00,NE,45,1.8,4.0,29,0.00,,,0.00,WUHU216HW,2013-02-03 19:15:00,
2013-02-03 12:17:00,62.1,29.4,30.00,NNE,23,2.9,4.0,29,0.00,,,0.00,WUHU216HW,2013-02-03 19:17:00,
2013-02-03 12:19:00,62.3,29.5,30.00,East,90,1.3,4.0,29,0.00,,,0.00,WUHU216HW,2013-02-03 19:19:00,
2013-02-03 12:20:00,62.3,29.5,30.00,ENE,68,3.4,3.8,29,0.00,,,0.00,WUHU216HW,2013-02-03 19:20:00,
2013-02-03 12:22:00,62.3,29.5,30.00,East,90,1.8,3.8,29,0.00,,,0.00,WUHU216HW,2013-02-03 19:22:00,
2013-02-03 12:24:00,62.5,29.6,30.00,SSW,203,0.0,3.8,29,0.00,,,0.00,WUHU216HW,2013-02-03 19:24:00,
2013-02-03 12:25:00,62.5,29.6,29.99,East,90,2.0,3.8,29,0.00,,,0.00,WUHU216HW,2013-02-03 19:25:00,
2013-02-03 12:27:00,62.6,29.8,29.99,SE,135,2.5,3.8,29,0.00,,,0.00,WUHU216HW,2013-02-03 19:27:00,
2013-02-03 12:29:00,62.6,29.8,29.99,SE,135,2.2,3.8,29,0.00,,,0.00,WUHU216HW,2013-02-03 19:29:00,
2013-02-03 12:30:00,62.8,30.0,29.99,SSE,158,1.1,3.8,29,0.00,,,0.00,WUHU216HW,2013-02-03 19:30:00,
2013-02-03 12:32:00,62.8,30.0,29.99,South,180,1.1,3.8,29,0.00,,,0.00,WUHU216HW,2013-02-03 19:32:00,
2013-02-03 12:35:00,62.8,30.0,29.99,SE,135,2.0,3.8,29,0.00,,,0.00,WUHU216HW,2013-02-03 19:35:00,
2013-02-03 12:37:00,63.0,30.2,29.99,South,180,0.0,3.8,29,0.00,,,0.00,WUHU216HW,2013-02-03 19:37:00,
2013-02-03 12:38:00,63.0,30.2,29.99,South,180,0.2,3.8,29,0.00,,,0.00,WUHU216HW,2013-02-03 19:38:00,
2013-02-03 12:40:00,62.8,29.0,29.99,South,180,0.4,3.8,28,0.00,,,0.00,WUHU216HW,2013-02-03 19:40:00,
2013-02-03 12:42:00,63.0,30.2,29.99,SE,135,0.2,3.4,29,0.00,,,0.00,WUHU216HW,2013-02-03 19:42:00,
2013-02-03 12:43:00,62.8,30.0,29.99,ESE,113,0.0,3.4,29,0.00,,,0.00,WUHU216HW,2013-02-03 19:43:00,
2013-02-03 12:45:00,63.0,30.2,29.99,ESE,113,1.1,1.8,29,0.00,,,0.00,WUHU216HW,2013-02-03 19:45:00,
2013-02-03 12:48:00,63.0,30.2,29.99,East,90,1.8,2.5,29,0.00,,,0.00,WUHU216HW,2013-02-03 19:48:00,
2013-02-03 12:50:00,63.4,30.4,29.98,ESE,113,2.5,2.5,29,0.00,,,0.00,WUHU216HW,2013-02-03 19:50:00,
2013-02-03 12:51:00,63.4,30.4,29.99,SSE,158,1.8,2.5,29,0.00,,,0.00,WUHU216HW,2013-02-03 19:51:00,
2013-02-03 12:53:00,63.5,30.6,29.98,SE,135,2.5,3.8,29,0.00,,,0.00,WUHU216HW,2013-02-03 19:53:00,
2013-02-03 12:54:00,63.5,30.6,29.98,ESE,113,1.1,3.8,29,0.00,,,0.00,WUHU216HW,2013-02-03 19:54:00,
2013-02-03 12:55:00,63.7,30.8,29.98,South,180,2.2,3.8,29,0.00,,,0.00,WUHU216HW,2013-02-03 19:55:00,
2013-02-03 12:56:00,63.7,30.8,29.98,SE,135,1.1,3.8,29,0.00,,,0.00,WUHU216HW,2013-02-03 19:56:00,
2013-02-03 12:58:00,63.9,31.0,29.98,SE,135,4.0,4.0,29,0.00,,,0.00,WUHU216HW,2013-02-03 19:58:00,
2013-02-03 12:59:00,63.9,31.0,29.98,SE,135,3.4,4.5,29,0.00,,,0.00,WUHU216HW,2013-02-03 19:59:00,
2013-02-03 13:01:00,64.1,31.1,29.98,SE,135,2.7,4.5,29,0.00,,,0.00,WUHU216HW,2013-02-03 20:01:00,
2013-02-03 13:03:00,64.3,32.2,29.98,SSE,158,3.8,4.5,30,0.00,,,0.00,WUHU216HW,2013-02-03 20:03:00,
2013-02-03 13:04:00,64.4,31.4,29.98,SE,135,2.0,4.5,29,0.00,,,0.00,WUHU216HW,2013-02-03 20:04:00,
2013-02-03 13:06:00,64.4,31.4,29.98,ESE,113,2.2,4.5,29,0.00,,,0.00,WUHU216HW,2013-02-03 20:06:00,
2013-02-03 13:08:00,64.6,31.6,29.98,East,90,0.4,4.5,29,0.00,,,0.00,WUHU216HW,2013-02-03 20:08:00,
2013-02-03 13:09:00,64.6,31.6,29.98,East,90,0.4,4.3,29,0.00,,,0.00,WUHU216HW,2013-02-03 20:09:00,
2013-02-03 13:11:00,64.6,31.6,29.97,SE,135,0.7,4.3,29,0.00,,,0.00,WUHU216HW,2013-02-03 20:11:00,
2013-02-03 13:13:00,64.6,31.6,29.97,SE,135,1.6,4.3,29,0.00,,,0.00,WUHU216HW,2013-02-03 20:13:00,
2013-02-03 13:14:00,64.6,31.6,29.97,ESE,113,3.8,3.8,29,0.00,,,0.00,WUHU216HW,2013-02-03 20:14:00,
2013-02-03 13:16:00,64.6,31.6,29.97,SSE,158,2.5,3.8,29,0.00,,,0.00,WUHU216HW,2013-02-03 20:16:00,
2013-02-03 13:17:00,64.6,31.6,29.97,SSE,158,2.5,3.8,29,0.00,,,0.00,WUHU216HW,2013-02-03 20:17:00,
2013-02-03 13:18:00,64.6,31.6,29.97,ESE,113,1.3,3.8,29,0.00,,,0.00,WUHU216HW,2013-02-03 20:18:00,
2013-02-03 13:19:00,64.8,31.8,29.97,SSE,158,1.6,3.8,29,0.00,,,0.00,WUHU216HW,2013-02-03 20:19:00,
2013-02-03 13:21:00,64.6,31.6,29.97,ESE,113,4.3,4.3,29,0.00,,,0.00,WUHU216HW,2013-02-03 20:21:00,
2013-02-03 13:22:00,64.6,31.6,29.97,East,90,4.0,4.3,29,0.00,,,0.00,WUHU216HW,2013-02-03 20:22:00,
2013-02-03 13:23:00,64.6,31.6,29.97,East,90,2.9,4.3,29,0.00,,,0.00,WUHU216HW,2013-02-03 20:23:00,
2013-02-03 13:24:00,64.6,31.6,29.97,ESE,113,3.6,4.3,29,0.00,,,0.00,WUHU216HW,2013-02-03 20:24:00,
2013-02-03 13:27:00,64.6,31.6,29.97,SE,135,2.5,4.3,29,0.00,,,0.00,WUHU216HW,2013-02-03 20:27:00,
2013-02-03 13:28:00,64.6,31.6,29.97,ESE,113,2.5,4.3,29,0.00,,,0.00,WUHU216HW,2013-02-03 20:28:00,
2013-02-03 13:29:00,64.6,31.6,29.97,East,90,3.1,4.3,29,0.00,,,0.00,WUHU216HW,2013-02-03 20:29:00,
2013-02-03 13:32:00,64.6,31.6,29.97,East,90,1.6,4.0,29,0.00,,,0.00,WUHU216HW,2013-02-03 20:32:00,
2013-02-03 13:33:00,64.8,31.8,29.97,East,90,1.6,3.6,29,0.00,,,0.00,WUHU216HW,2013-02-03 20:33:00,
2013-02-03 13:35:00,64.8,31.8,29.97,East,90,4.5,4.5,29,0.00,,,0.00,WUHU216HW,2013-02-03 20:35:00,
2013-02-03 13:37:00,64.8,31.8,29.96,East,90,1.1,4.5,29,0.00,,,0.00,WUHU216HW,2013-02-03 20:37:00,
2013-02-03 13:38:00,64.8,31.8,29.96,East,90,2.7,4.5,29,0.00,,,0.00,WUHU216HW,2013-02-03 20:38:00,
2013-02-03 13:40:00,65.2,32.0,29.96,ENE,68,1.1,4.5,29,0.00,,,0.00,WUHU216HW,2013-02-03 20:40:00,
2013-02-03 13:42:00,65.0,31.9,29.96,ENE,68,0.7,4.5,29,0.00,,,0.00,WUHU216HW,2013-02-03 20:42:00,
2013-02-03 13:43:00,65.2,32.0,29.96,ENE,68,0.9,4.5,29,0.00,,,0.00,WUHU216HW,2013-02-03 20:43:00,
2013-02-03 13:45:00,65.2,32.0,29.96,ENE,68,2.2,3.8,29,0.00,,,0.00,WUHU216HW,2013-02-03 20:45:00,
2013-02-03 13:47:00,65.2,32.0,29.96,ENE,68,3.8,4.0,29,0.00,,,0.00,WUHU216HW,2013-02-03 20:47:00,
2013-02-03 13:48:00,65.3,32.2,29.96,ENE,68,2.5,4.0,29,0.00,,,0.00,WUHU216HW,2013-02-03 20:48:00,
2013-02-03 13:50:00,65.3,31.2,29.96,East,90,2.9,4.0,28,0.00,,,0.00,WUHU216HW,2013-02-03 20:50:00,
2013-02-03 13:52:00,65.5,31.4,29.96,NE,45,2.0,4.0,28,0.00,,,0.00,WUHU216HW,2013-02-03 20:52:00,
2013-02-03 13:53:00,65.5,31.4,29.96,NE,45,2.0,4.0,28,0.00,,,0.00,WUHU216HW,2013-02-03 20:53:00,
2013-02-03 13:55:00,65.5,31.4,29.95,ENE,68,2.7,4.0,28,0.00,,,0.00,WUHU216HW,2013-02-03 20:55:00,
2013-02-03 13:58:00,65.7,31.5,29.95,NE,45,0.7,4.0,28,0.00,,,0.00,WUHU216HW,2013-02-03 20:58:00,
2013-02-03 14:00:00,65.7,31.5,29.95,ENE,68,2.2,2.9,28,0.00,,,0.00,WUHU216HW,2013-02-03 21:00:00,
2013-02-03 14:03:00,65.7,31.5,29.95,NNE,23,1.6,2.9,28,0.00,,,0.00,WUHU216HW,2013-02-03 21:03:00,
2013-02-03 14:06:00,65.5,31.4,29.95,NE,45,1.8,2.9,28,0.00,,,0.00,WUHU216HW,2013-02-03 21:06:00,
2013-02-03 14:08:00,65.5,31.4,29.95,North,0,2.7,2.9,28,0.00,,,0.00,WUHU216HW,2013-02-03 21:08:00,
2013-02-03 14:11:00,65.2,30.1,29.95,North,0,1.8,3.1,27,0.00,,,0.00,WUHU216HW,2013-02-03 21:11:00,
2013-02-03 14:13:00,65.0,28.9,29.95,NNW,338,2.0,3.1,26,0.00,,,0.00,WUHU216HW,2013-02-03 21:13:00,
2013-02-03 14:16:00,64.4,30.4,29.95,North,0,2.9,4.3,28,0.00,,,0.00,WUHU216HW,2013-02-03 21:16:00,
2013-02-03 14:18:00,64.3,30.2,29.95,NNW,338,3.1,5.4,28,0.00,,,0.00,WUHU216HW,2013-02-03 21:18:00,
2013-02-03 14:19:00,64.3,30.2,29.95,North,0,3.8,5.6,28,0.00,,,0.00,WUHU216HW,2013-02-03 21:19:00,
2013-02-03 14:21:00,63.9,29.0,29.95,NNW,338,9.2,9.2,27,0.00,,,0.00,WUHU216HW,2013-02-03 21:21:00,
2013-02-03 14:23:00,63.4,29.4,29.95,WNW,293,7.6,12.8,28,0.00,,,0.00,WUHU216HW,2013-02-03 21:23:00,
2013-02-03 14:24:00,63.2,30.3,29.96,NW,315,11.9,12.8,29,0.00,,,0.00,WUHU216HW,2013-02-03 21:24:00,
2013-02-03 14:27:00,61.9,33.0,29.95,West,270,16.1,17.7,34,0.00,,,0.00,WUHU216HW,2013-02-03 21:27:00,
2013-02-03 14:28:00,61.2,33.9,29.95,NW,315,16.3,17.7,36,0.00,,,0.00,WUHU216HW,2013-02-03 21:28:00,
2013-02-03 14:29:00,61.2,33.9,29.95,NW,315,15.9,17.7,36,0.00,,,0.00,WUHU216HW,2013-02-03 21:29:00,
2013-02-03 14:32:00,59.9,34.8,29.95,NW,315,11.0,19.7,39,0.00,,,0.00,WUHU216HW,2013-02-03 21:32:00,
2013-02-03 14:33:00,59.8,34.7,29.95,NW,315,13.4,19.7,39,0.00,,,0.00,WUHU216HW,2013-02-03 21:33:00,
2013-02-03 14:34:00,59.6,35.2,29.95,NNW,338,15.7,19.7,40,0.00,,,0.00,WUHU216HW,2013-02-03 21:34:00,
2013-02-03 14:37:00,58.7,36.7,29.96,NW,315,14.5,20.1,44,0.00,,,0.00,WUHU216HW,2013-02-03 21:37:00,
2013-02-03 14:38:00,58.3,37.0,29.96,WNW,293,14.3,20.1,45,0.00,,,0.00,WUHU216HW,2013-02-03 21:38:00,
2013-02-03 14:39:00,58.1,37.4,29.96,WNW,293,14.3,20.1,46,0.00,,,0.00,WUHU216HW,2013-02-03 21:39:00,
2013-02-03 14:43:00,56.9,38.5,29.95,NW,315,14.8,20.1,50,0.00,,,0.00,WUHU216HW,2013-02-03 21:43:00,
2013-02-03 14:44:00,56.5,38.6,29.95,NW,315,15.0,20.1,51,0.00,,,0.00,WUHU216HW,2013-02-03 21:44:00,
2013-02-03 14:45:00,56.2,38.7,29.95,WNW,293,11.0,20.1,52,0.00,,,0.00,WUHU216HW,2013-02-03 21:45:00,
2013-02-03 14:48:00,55.4,39.0,29.96,NW,315,10.7,17.7,54,0.00,,,0.00,WUHU216HW,2013-02-03 21:48:00,
2013-02-03 14:49:00,55.1,39.1,29.96,West,270,11.6,17.7,55,0.00,,,0.00,WUHU216HW,2013-02-03 21:49:00,
2013-02-03 14:50:00,54.9,39.4,29.95,NW,315,13.6,17.7,56,0.00,,,0.00,WUHU216HW,2013-02-03 21:50:00,
2013-02-03 14:53:00,54.4,40.8,29.96,WNW,293,10.5,17.7,60,0.00,,,0.00,WUHU216HW,2013-02-03 21:53:00,
2013-02-03 14:54:00,54.4,40.8,29.96,NW,315,11.4,17.7,60,0.00,,,0.00,WUHU216HW,2013-02-03 21:54:00,
2013-02-03 14:55:00,54.2,41.1,29.96,NW,315,11.6,17.7,61,0.00,,,0.00,WUHU216HW,2013-02-03 21:55:00,
2013-02-03 14:58:00,54.0,41.7,29.96,NW,315,13.4,14.3,63,0.00,,,0.00,WUHU216HW,2013-02-03 21:58:00,
2013-02-03 14:59:00,54.0,41.7,29.96,WSW,248,12.3,15.4,63,0.00,,,0.00,WUHU216HW,2013-02-03 21:59:00,
2013-02-03 15:00:00,54.0,41.7,29.96,West,270,12.8,15.4,63,0.00,,,0.00,WUHU216HW,2013-02-03 22:00:00,
2013-02-03 15:03:00,53.8,41.1,29.97,NW,315,6.0,15.4,62,0.00,,,0.00,WUHU216HW,2013-02-03 22:03:00,
2013-02-03 15:04:00,53.6,41.0,29.97,WNW,293,7.4,15.4,62,0.00,,,0.00,WUHU216HW,2013-02-03 22:04:00,
2013-02-03 15:05:00,53.8,41.5,29.97,WNW,293,7.6,15.4,63,0.00,,,0.00,WUHU216HW,2013-02-03 22:05:00,
2013-02-03 15:09:00,53.6,41.8,29.96,NW,315,9.8,13.4,64,0.00,,,0.00,WUHU216HW,2013-02-03 22:09:00,
2013-02-03 15:10:00,53.6,41.8,29.97,West,270,4.7,12.3,64,0.00,,,0.00,WUHU216HW,2013-02-03 22:10:00,
2013-02-03 15:14:00,53.6,41.8,29.97,NW,315,6.0,12.1,64,0.00,,,0.00,WUHU216HW,2013-02-03 22:14:00,
2013-02-03 15:15:00,53.6,41.3,29.96,West,270,8.9,12.1,63,0.00,,,0.00,WUHU216HW,2013-02-03 22:15:00,
2013-02-03 15:19:00,53.6,41.3,29.96,West,270,6.9,12.5,63,0.00,,,0.00,WUHU216HW,2013-02-03 22:19:00,
2013-02-03 15:20:00,53.6,41.0,29.96,NNW,338,8.5,12.5,62,0.00,,,0.00,WUHU216HW,2013-02-03 22:20:00,
2013-02-03 15:21:00,53.6,40.5,29.96,NW,315,6.7,12.5,61,0.00,,,0.00,WUHU216HW,2013-02-03 22:21:00,
2013-02-03 15:24:00,53.8,40.7,29.96,WNW,293,5.4,12.5,61,0.00,,,0.00,WUHU216HW,2013-02-03 22:24:00,
2013-02-03 15:25:00,53.8,40.3,29.96,West,270,11.2,12.5,60,0.00,,,0.00,WUHU216HW,2013-02-03 22:25:00,
2013-02-03 15:26:00,53.8,40.7,29.96,NW,315,6.3,12.5,61,0.00,,,0.00,WUHU216HW,2013-02-03 22:26:00,
2013-02-03 15:29:00,53.8,40.3,29.96,NW,315,9.8,11.2,60,0.00,,,0.00,WUHU216HW,2013-02-03 22:29:00,
2013-02-03 15:30:00,53.8,40.3,29.96,WNW,293,8.3,11.2,60,0.00,,,0.00,WUHU216HW,2013-02-03 22:30:00,
2013-02-03 15:31:00,53.8,39.9,29.96,WNW,293,6.9,11.2,59,0.00,,,0.00,WUHU216HW,2013-02-03 22:31:00,
2013-02-03 15:34:00,53.8,39.9,29.96,WNW,293,12.1,12.1,59,0.00,,,0.00,WUHU216HW,2013-02-03 22:34:00,
2013-02-03 15:35:00,53.8,39.9,29.96,West,270,7.8,12.1,59,0.00,,,0.00,WUHU216HW,2013-02-03 22:35:00,
2013-02-03 15:36:00,54.0,39.5,29.96,West,270,8.3,12.1,58,0.00,,,0.00,WUHU216HW,2013-02-03 22:36:00,
2013-02-03 15:39:00,54.0,39.5,29.96,West,270,10.5,12.1,58,0.00,,,0.00,WUHU216HW,2013-02-03 22:39:00,
2013-02-03 15:40:00,54.2,40.1,29.96,WNW,293,11.0,12.1,59,0.00,,,0.00,WUHU216HW,2013-02-03 22:40:00,
2013-02-03 15:41:00,54.2,39.7,29.96,West,270,9.2,12.1,58,0.00,,,0.00,WUHU216HW,2013-02-03 22:41:00,
2013-02-03 15:44:00,54.2,39.3,29.96,West,270,13.4,13.6,57,0.00,,,0.00,WUHU216HW,2013-02-03 22:44:00,
2013-02-03 15:45:00,54.4,39.4,29.96,WSW,248,13.6,14.3,57,0.00,,,0.00,WUHU216HW,2013-02-03 22:45:00,
2013-02-03 15:47:00,54.4,39.4,29.96,WNW,293,15.0,15.0,57,0.00,,,0.00,WUHU216HW,2013-02-03 22:47:00,
2013-02-03 15:49:00,54.5,39.1,29.96,West,270,10.5,16.3,56,0.00,,,0.00,WUHU216HW,2013-02-03 22:49:00,
2013-02-03 15:50:00,54.7,39.2,29.96,WSW,248,11.4,16.3,56,0.00,,,0.00,WUHU216HW,2013-02-03 22:50:00,
2013-02-03 15:52:00,54.7,38.8,29.96,West,270,9.4,16.3,55,0.00,,,0.00,WUHU216HW,2013-02-03 22:52:00,
2013-02-03 15:54:00,54.7,38.8,29.95,NW,315,7.8,16.3,55,0.00,,,0.00,WUHU216HW,2013-02-03 22:54:00,
2013-02-03 15:55:00,54.9,39.0,29.95,West,270,5.6,16.3,55,0.00,,,0.00,WUHU216HW,2013-02-03 22:55:00,
2013-02-03 15:56:00,54.9,39.0,29.95,WNW,293,9.2,16.3,55,0.00,,,0.00,WUHU216HW,2013-02-03 22:56:00,
2013-02-03 15:57:00,54.9,39.0,29.95,West,270,7.4,16.3,55,0.00,,,0.00,WUHU216HW,2013-02-03 22:57:00,
2013-02-03 15:59:00,55.1,39.1,29.95,WSW,248,7.6,12.5,55,0.00,,,0.00,WUHU216HW,2013-02-03 22:59:00,
2013-02-03 16:00:00,55.1,38.6,29.95,West,270,11.4,12.5,54,0.00,,,0.00,WUHU216HW,2013-02-03 23:00:00,
2013-02-03 16:01:00,55.1,38.6,29.95,WNW,293,7.4,11.6,54,0.00,,,0.00,WUHU216HW,2013-02-03 23:01:00,
2013-02-03 16:02:00,55.1,38.6,29.95,WNW,293,7.6,11.4,54,0.00,,,0.00,WUHU216HW,2013-02-03 23:02:00,
2013-02-03 16:05:00,55.3,38.8,29.95,WNW,293,6.9,11.4,54,0.00,,,0.00,WUHU216HW,2013-02-03 23:05:00,
2013-02-03 16:06:00,55.4,38.5,29.95,West,270,8.5,11.4,53,0.00,,,0.00,WUHU216HW,2013-02-03 23:06:00,
2013-02-03 16:07:00,55.4,38.5,29.95,West,270,5.8,11.4,53,0.00,,,0.00,WUHU216HW,2013-02-03 23:07:00,
2013-02-03 16:10:00,55.4,38.5,29.95,West,270,9.6,11.4,53,0.00,,,0.00,WUHU216HW,2013-02-03 23:10:00,
2013-02-03 16:12:00,55.6,38.7,29.95,NW,315,5.8,9.8,53,0.00,,,0.00,WUHU216HW,2013-02-03 23:12:00,
2013-02-03 16:15:00,55.8,38.9,29.95,NW,315,5.4,9.6,53,0.00,,,0.00,WUHU216HW,2013-02-03 23:15:00,
2013-02-03 16:17:00,56.0,39.1,29.95,WNW,293,4.3,9.6,53,0.00,,,0.00,WUHU216HW,2013-02-03 23:17:00,
2013-02-03 16:20:00,56.2,38.7,29.94,West,270,7.6,9.6,52,0.00,,,0.00,WUHU216HW,2013-02-03 23:20:00,
2013-02-03 16:22:00,56.2,38.7,29.94,WNW,293,4.7,8.5,52,0.00,,,0.00,WUHU216HW,2013-02-03 23:22:00,
2013-02-03 16:25:00,56.3,39.4,29.94,West,270,6.9,8.5,53,0.00,,,0.00,WUHU216HW,2013-02-03 23:25:00,
2013-02-03 16:26:00,56.3,39.4,29.94,West,270,6.0,8.5,53,0.00,,,0.00,WUHU216HW,2013-02-03 23:26:00,
2013-02-03 16:27:00,56.3,39.4,29.94,WSW,248,6.5,8.5,53,0.00,,,0.00,WUHU216HW,2013-02-03 23:27:00,
2013-02-03 16:28:00,56.3,38.9,29.94,WSW,248,6.3,8.5,52,0.00,,,0.00,WUHU216HW,2013-02-03 23:28:00,
2013-02-03 16:30:00,56.5,39.6,29.94,WSW,248,6.3,8.1,53,0.00,,,0.00,WUHU216HW,2013-02-03 23:30:00,
2013-02-03 16:31:00,56.5,39.6,29.94,WSW,248,5.8,8.1,53,0.00,,,0.00,WUHU216HW,2013-02-03 23:31:00,
2013-02-03 16:32:00,56.5,39.6,29.94,West,270,6.5,8.1,53,0.00,,,0.00,WUHU216HW,2013-02-03 23:32:00,
2013-02-03 16:33:00,56.5,39.6,29.94,West,270,6.9,8.1,53,0.00,,,0.00,WUHU216HW,2013-02-03 23:33:00,
2013-02-03 16:35:00,56.5,40.1,29.94,WSW,248,5.4,8.5,54,0.00,,,0.00,WUHU216HW,2013-02-03 23:35:00,
2013-02-03 16:36:00,56.3,39.9,29.94,WSW,248,4.9,8.5,54,0.00,,,0.00,WUHU216HW,2013-02-03 23:36:00,
2013-02-03 16:37:00,56.5,40.1,29.94,West,270,4.5,8.5,54,0.00,,,0.00,WUHU216HW,2013-02-03 23:37:00,
2013-02-03 16:38:00,56.5,40.1,29.94,West,270,5.4,8.5,54,0.00,,,0.00,WUHU216HW,2013-02-03 23:38:00,
2013-02-03 16:40:00,56.5,40.1,29.94,West,270,4.3,8.5,54,0.00,,,0.00,WUHU216HW,2013-02-03 23:40:00,
2013-02-03 16:41:00,56.5,40.1,29.94,WNW,293,3.6,8.5,54,0.00,,,0.00,WUHU216HW,2013-02-03 23:41:00,
2013-02-03 16:43:00,56.5,40.1,29.94,West,270,3.1,8.5,54,0.00,,,0.00,WUHU216HW,2013-02-03 23:43:00,
2013-02-03 16:45:00,56.5,40.1,29.95,North,0,0.4,6.0,54,0.00,,,0.00,WUHU216HW,2013-02-03 23:45:00,
2013-02-03 16:46:00,56.5,40.1,29.94,ENE,68,2.2,5.4,54,0.00,,,0.00,WUHU216HW,2013-02-03 23:46:00,
2013-02-03 16:48:00,56.5,40.1,29.94,NE,45,2.5,5.4,54,0.00,,,0.00,WUHU216HW,2013-02-03 23:48:00,
2013-02-03 16:50:00,56.7,39.8,29.94,ENE,68,4.0,6.0,53,0.00,,,0.00,WUHU216HW,2013-02-03 23:50:00,
2013-02-03 16:51:00,56.9,40.0,29.94,NE,45,3.6,6.0,53,0.00,,,0.00,WUHU216HW,2013-02-03 23:51:00,
2013-02-03 16:53:00,56.9,40.0,29.94,ENE,68,5.4,6.0,53,0.00,,,0.00,WUHU216HW,2013-02-03 23:53:00,
2013-02-03 16:56:00,56.9,40.0,29.95,NE,45,5.8,6.9,53,0.00,,,0.00,WUHU216HW,2013-02-03 23:56:00,
2013-02-03 16:58:00,56.9,40.4,29.95,ENE,68,3.8,6.9,54,0.00,,,0.00,WUHU216HW,2013-02-03 23:58:00,
2013-02-03 17:01:00,57.2,40.8,29.95,ENE,68,3.6,6.9,54,0.00,,,0.00,WUHU216HW,2013-02-04 00:01:00,
2013-02-03 17:03:00,57.2,40.8,29.95,ENE,68,2.5,6.9,54,0.00,,,0.00,WUHU216HW,2013-02-04 00:03:00,
2013-02-03 17:06:00,57.4,41.0,29.95,ENE,68,6.0,6.0,54,0.00,,,0.00,WUHU216HW,2013-02-04 00:06:00,
2013-02-03 17:07:00,57.6,41.0,29.95,ENE,68,5.4,6.0,54,0.00,,,0.00,WUHU216HW,2013-02-04 00:07:00,
2013-02-03 17:08:00,57.4,41.0,29.95,ENE,68,4.7,6.3,54,0.00,,,0.00,WUHU216HW,2013-02-04 00:08:00,
2013-02-03 17:11:00,57.6,41.0,29.95,ENE,68,5.1,6.3,54,0.00,,,0.00,WUHU216HW,2013-02-04 00:11:00,
2013-02-03 17:12:00,57.4,41.0,29.95,ENE,68,4.0,6.3,54,0.00,,,0.00,WUHU216HW,2013-02-04 00:12:00,
2013-02-03 17:13:00,57.4,41.0,29.95,ENE,68,4.9,6.3,54,0.00,,,0.00,WUHU216HW,2013-02-04 00:13:00,
2013-02-03 17:16:00,57.8,41.2,29.95,East,90,4.3,6.3,54,0.00,,,0.00,WUHU216HW,2013-02-04 00:16:00,
2013-02-03 17:17:00,58.3,41.8,29.95,ESE,113,4.5,6.0,54,0.00,,,0.00,WUHU216HW,2013-02-04 00:17:00,
2013-02-03 17:18:00,58.5,41.9,29.95,East,90,2.9,6.0,54,0.00,,,0.00,WUHU216HW,2013-02-04 00:18:00,
2013-02-03 17:21:00,59.0,42.0,29.95,ESE,113,4.3,5.6,53,0.00,,,0.00,WUHU216HW,2013-02-04 00:21:00,
2013-02-03 17:23:00,59.2,41.6,29.95,SE,135,2.2,5.4,52,0.00,,,0.00,WUHU216HW,2013-02-04 00:23:00,
2013-02-03 17:26:00,59.4,41.8,29.95,SE,135,2.5,4.5,52,0.00,,,0.00,WUHU216HW,2013-02-04 00:26:00,
2013-02-03 17:28:00,59.2,41.1,29.95,SE,135,2.0,4.3,51,0.00,,,0.00,WUHU216HW,2013-02-04 00:28:00,
2013-02-03 17:29:00,59.0,41.0,29.95,SE,135,3.8,4.3,51,0.00,,,0.00,WUHU216HW,2013-02-04 00:29:00,
2013-02-03 17:31:00,58.9,40.8,29.95,SSE,158,4.0,4.5,51,0.00,,,0.00,WUHU216HW,2013-02-04 00:31:00,
2013-02-03 17:33:00,58.7,40.7,29.95,SE,135,1.8,4.5,51,0.00,,,0.00,WUHU216HW,2013-02-04 00:33:00,
2013-02-03 17:34:00,58.7,40.7,29.95,SE,135,4.0,4.5,51,0.00,,,0.00,WUHU216HW,2013-02-04 00:34:00,
2013-02-03 17:36:00,58.3,40.3,29.95,South,180,2.7,4.5,51,0.00,,,0.00,WUHU216HW,2013-02-04 00:36:00,
2013-02-03 17:38:00,58.1,40.1,29.95,SSW,203,1.8,4.5,51,0.00,,,0.00,WUHU216HW,2013-02-04 00:38:00,
2013-02-03 17:39:00,58.0,40.0,29.95,SSW,203,2.2,4.5,51,0.00,,,0.00,WUHU216HW,2013-02-04 00:39:00,
2013-02-03 17:41:00,57.6,39.7,29.95,SSW,203,1.8,4.0,51,0.00,,,0.00,WUHU216HW,2013-02-04 00:41:00,
2013-02-03 17:43:00,57.4,40.0,29.95,South,180,2.7,4.0,52,0.00,,,0.00,WUHU216HW,2013-02-04 00:43:00,
2013-02-03 17:44:00,57.2,39.8,29.95,South,180,2.9,2.9,52,0.00,,,0.00,WUHU216HW,2013-02-04 00:44:00,
2013-02-03 17:46:00,57.1,39.6,29.95,South,180,3.6,3.6,52,0.00,,,0.00,WUHU216HW,2013-02-04 00:46:00,
2013-02-03 17:48:00,56.9,39.4,29.95,SSW,203,1.8,3.6,52,0.00,,,0.00,WUHU216HW,2013-02-04 00:48:00,
2013-02-03 17:49:00,56.7,39.2,29.95,SSW,203,1.8,3.6,52,0.00,,,0.00,WUHU216HW,2013-02-04 00:49:00,
2013-02-03 17:51:00,56.3,39.4,29.95,SSW,203,2.2,3.6,53,0.00,,,0.00,WUHU216HW,2013-02-04 00:51:00,
2013-02-03 17:53:00,56.2,38.7,29.95,SSW,203,2.2,3.6,52,0.00,,,0.00,WUHU216HW,2013-02-04 00:53:00,
2013-02-03 17:54:00,56.0,38.5,29.95,SSW,203,2.5,3.6,52,0.00,,,0.00,WUHU216HW,2013-02-04 00:54:00,
2013-02-03 17:55:00,55.8,38.3,29.95,SSW,203,2.9,3.6,52,0.00,,,0.00,WUHU216HW,2013-02-04 00:55:00,
2013-02-03 17:56:00,55.6,38.2,29.95,SSW,203,2.5,3.4,52,0.00,,,0.00,WUHU216HW,2013-02-04 00:56:00,
2013-02-03 17:59:00,55.4,38.5,29.95,South,180,2.9,3.8,53,0.00,,,0.00,WUHU216HW,2013-02-04 00:59:00,
2013-02-03 18:00:00,55.3,38.4,29.95,South,180,2.7,3.8,53,0.00,,,0.00,WUHU216HW,2013-02-04 01:00:00,
2013-02-03 18:02:00,55.1,38.2,29.95,SSW,203,3.4,3.8,53,0.00,,,0.00,WUHU216HW,2013-02-04 01:02:00,
2013-02-03 18:04:00,54.7,37.8,29.95,SSW,203,3.4,3.8,53,0.00,,,0.00,WUHU216HW,2013-02-04 01:04:00,
2013-02-03 18:05:00,54.5,37.7,29.95,SSW,203,2.2,3.8,53,0.00,,,0.00,WUHU216HW,2013-02-04 01:05:00,
2013-02-03 18:07:00,54.4,38.0,29.95,SSW,203,2.7,3.8,54,0.00,,,0.00,WUHU216HW,2013-02-04 01:07:00,
2013-02-03 18:09:00,54.0,37.6,29.95,SSW,203,3.4,3.8,54,0.00,,,0.00,WUHU216HW,2013-02-04 01:09:00,
2013-02-03 18:10:00,53.8,37.5,29.95,SW,225,2.9,3.8,54,0.00,,,0.00,WUHU216HW,2013-02-04 01:10:00,
2013-02-03 18:12:00,53.6,37.4,29.95,SW,225,2.0,3.8,54,0.00,,,0.00,WUHU216HW,2013-02-04 01:12:00,
2013-02-03 18:14:00,53.5,37.2,29.95,SSW,203,1.8,3.8,54,0.00,,,0.00,WUHU216HW,2013-02-04 01:14:00,
2013-02-03 18:15:00,53.3,37.0,29.95,SSW,203,0.7,3.8,54,0.00,,,0.00,WUHU216HW,2013-02-04 01:15:00,
2013-02-03 18:17:00,53.1,37.3,29.95,WSW,248,0.9,3.8,55,0.00,,,0.00,WUHU216HW,2013-02-04 01:17:00,
2013-02-03 18:19:00,52.9,37.1,29.95,SW,225,1.8,3.8,55,0.00,,,0.00,WUHU216HW,2013-02-04 01:19:00,
2013-02-03 18:20:00,52.7,37.5,29.95,WSW,248,1.8,3.1,56,0.00,,,0.00,WUHU216HW,2013-02-04 01:20:00,
2013-02-03 18:22:00,52.6,37.3,29.95,WSW,248,1.6,2.0,56,0.00,,,0.00,WUHU216HW,2013-02-04 01:22:00,
2013-02-03 18:24:00,52.4,37.1,29.95,West,270,2.0,2.2,56,0.00,,,0.00,WUHU216HW,2013-02-04 01:24:00,
2013-02-03 18:26:00,52.2,37.4,29.95,WSW,248,2.7,2.7,57,0.00,,,0.00,WUHU216HW,2013-02-04 01:26:00,
2013-02-03 18:27:00,51.8,37.4,29.95,WSW,248,2.5,3.4,58,0.00,,,0.00,WUHU216HW,2013-02-04 01:27:00,
2013-02-03 18:29:00,51.5,37.1,29.96,SW,225,1.8,3.4,58,0.00,,,0.00,WUHU216HW,2013-02-04 01:29:00,
2013-02-03 18:31:00,51.3,37.0,29.95,WSW,248,1.1,3.4,58,0.00,,,0.00,WUHU216HW,2013-02-04 01:31:00,
2013-02-03 18:32:00,51.3,37.0,29.95,WSW,248,4.5,4.5,58,0.00,,,0.00,WUHU216HW,2013-02-04 01:32:00,
2013-02-03 18:34:00,51.1,37.3,29.96,West,270,4.9,4.9,59,0.00,,,0.00,WUHU216HW,2013-02-04 01:34:00,
2013-02-03 18:35:00,50.9,37.1,29.96,WSW,248,4.5,4.9,59,0.00,,,0.00,WUHU216HW,2013-02-04 01:35:00,
2013-02-03 18:36:00,50.9,37.1,29.95,SW,225,2.2,4.9,59,0.00,,,0.00,WUHU216HW,2013-02-04 01:36:00,
2013-02-03 18:38:00,50.8,36.9,29.95,SW,225,1.8,4.9,59,0.00,,,0.00,WUHU216HW,2013-02-04 01:38:00,
2013-02-03 18:39:00,50.8,36.9,29.95,SW,225,1.8,4.9,59,0.00,,,0.00,WUHU216HW,2013-02-04 01:39:00,
2013-02-03 18:40:00,50.8,36.9,29.95,SW,225,1.3,4.9,59,0.00,,,0.00,WUHU216HW,2013-02-04 01:40:00,
2013-02-03 18:41:00,50.8,36.9,29.95,SW,225,1.3,4.9,59,0.00,,,0.00,WUHU216HW,2013-02-04 01:41:00,
2013-02-03 18:43:00,50.6,36.7,29.95,WSW,248,2.5,4.9,59,0.00,,,0.00,WUHU216HW,2013-02-04 01:43:00,
2013-02-03 18:44:00,50.4,36.6,29.95,SW,225,2.5,4.9,59,0.00,,,0.00,WUHU216HW,2013-02-04 01:44:00,
2013-02-03 18:45:00,50.4,37.1,29.95,WSW,248,2.9,2.9,60,0.00,,,0.00,WUHU216HW,2013-02-04 01:45:00,
2013-02-03 18:46:00,50.2,37.3,29.95,WSW,248,3.8,4.5,61,0.00,,,0.00,WUHU216HW,2013-02-04 01:46:00,
2013-02-03 18:48:00,50.0,36.7,29.96,SW,225,1.8,4.5,60,0.00,,,0.00,WUHU216HW,2013-02-04 01:48:00,
2013-02-03 18:49:00,50.0,36.7,29.96,SSW,203,2.5,4.5,60,0.00,,,0.00,WUHU216HW,2013-02-04 01:49:00,
2013-02-03 18:50:00,50.0,36.7,29.96,SSW,203,1.8,4.5,60,0.00,,,0.00,WUHU216HW,2013-02-04 01:50:00,
2013-02-03 18:51:00,50.0,36.7,29.96,SSW,203,1.3,4.5,60,0.00,,,0.00,WUHU216HW,2013-02-04 01:51:00,
2013-02-03 18:53:00,50.0,37.1,29.96,WSW,248,1.1,4.5,61,0.00,,,0.00,WUHU216HW,2013-02-04 01:53:00,
2013-02-03 18:54:00,49.9,37.4,29.96,West,270,2.0,4.5,62,0.00,,,0.00,WUHU216HW,2013-02-04 01:54:00,
2013-02-03 18:55:00,49.9,37.4,29.96,West,270,4.5,4.5,62,0.00,,,0.00,WUHU216HW,2013-02-04 01:55:00,
2013-02-03 18:56:00,49.7,37.2,29.96,West,270,4.7,6.0,62,0.00,,,0.00,WUHU216HW,2013-02-04 01:56:00,
2013-02-03 18:58:00,49.3,37.3,29.96,West,270,4.3,6.3,63,0.00,,,0.00,WUHU216HW,2013-02-04 01:58:00,
2013-02-03 18:59:00,49.3,37.3,29.96,West,270,3.1,6.3,63,0.00,,,0.00,WUHU216HW,2013-02-04 01:59:00,
2013-02-03 19:00:00,49.3,37.3,29.96,West,270,3.1,6.3,63,0.00,,,0.00,WUHU216HW,2013-02-04 02:00:00,
2013-02-03 19:01:00,49.3,37.3,29.96,West,270,3.6,6.3,63,0.00,,,0.00,WUHU216HW,2013-02-04 02:01:00,
2013-02-03 19:03:00,49.3,37.3,29.96,South,180,0.0,6.3,63,0.00,,,0.00,WUHU216HW,2013-02-04 02:03:00,
2013-02-03 19:05:00,49.3,36.8,29.96,SSE,158,1.8,6.3,62,0.00,,,0.00,WUHU216HW,2013-02-04 02:05:00,
2013-02-03 19:07:00,49.3,36.8,29.96,SW,225,1.8,6.3,62,0.00,,,0.00,WUHU216HW,2013-02-04 02:07:00,
2013-02-03 19:09:00,49.3,36.8,29.96,WSW,248,3.8,5.6,62,0.00,,,0.00,WUHU216HW,2013-02-04 02:09:00,
2013-02-03 19:10:00,49.3,36.8,29.96,WSW,248,4.5,5.6,62,0.00,,,0.00,WUHU216HW,2013-02-04 02:10:00,
2013-02-03 19:11:00,49.3,36.8,29.96,SW,225,2.5,5.6,62,0.00,,,0.00,WUHU216HW,2013-02-04 02:11:00,
2013-02-03 19:12:00,49.5,36.6,29.96,West,270,2.7,5.6,61,0.00,,,0.00,WUHU216HW,2013-02-04 02:12:00,
2013-02-03 19:14:00,49.5,36.6,29.96,WSW,248,4.9,5.6,61,0.00,,,0.00,WUHU216HW,2013-02-04 02:14:00,
2013-02-03 19:15:00,49.5,37.0,29.96,SW,225,4.7,5.6,62,0.00,,,0.00,WUHU216HW,2013-02-04 02:15:00,
2013-02-03 19:17:00,49.5,36.6,29.96,WSW,248,4.0,5.6,61,0.00,,,0.00,WUHU216HW,2013-02-04 02:17:00,
2013-02-03 19:19:00,49.3,36.5,29.96,SW,225,3.1,5.4,61,0.00,,,0.00,WUHU216HW,2013-02-04 02:19:00,
2013-02-03 19:20:00,49.3,36.5,29.96,SW,225,2.5,5.4,61,0.00,,,0.00,WUHU216HW,2013-02-04 02:20:00,
2013-02-03 19:21:00,49.3,36.5,29.96,SW,225,2.5,5.4,61,0.00,,,0.00,WUHU216HW,2013-02-04 02:21:00,
2013-02-03 19:22:00,49.3,36.5,29.96,West,270,3.4,5.4,61,0.00,,,0.00,WUHU216HW,2013-02-04 02:22:00,
2013-02-03 19:24:00,49.3,36.5,29.96,WSW,248,2.5,5.4,61,0.00,,,0.00,WUHU216HW,2013-02-04 02:24:00,
2013-02-03 19:25:00,49.3,36.5,29.96,SW,225,2.5,4.9,61,0.00,,,0.00,WUHU216HW,2013-02-04 02:25:00,
2013-02-03 19:26:00,49.3,36.5,29.96,WSW,248,1.6,4.5,61,0.00,,,0.00,WUHU216HW,2013-02-04 02:26:00,
2013-02-03 19:27:00,49.3,36.5,29.96,SW,225,1.8,4.5,61,0.00,,,0.00,WUHU216HW,2013-02-04 02:27:00,
2013-02-03 19:29:00,49.3,36.1,29.96,SW,225,1.1,4.5,60,0.00,,,0.00,WUHU216HW,2013-02-04 02:29:00,
2013-02-03 19:30:00,49.3,36.1,29.96,SW,225,1.6,4.5,60,0.00,,,0.00,WUHU216HW,2013-02-04 02:30:00,
2013-02-03 19:31:00,49.3,36.1,29.96,SW,225,1.3,4.5,60,0.00,,,0.00,WUHU216HW,2013-02-04 02:31:00,
2013-02-03 19:33:00,49.3,36.1,29.96,WSW,248,3.4,3.4,60,0.00,,,0.00,WUHU216HW,2013-02-04 02:33:00,
2013-02-03 19:34:00,49.3,36.1,29.96,SW,225,3.4,3.8,60,0.00,,,0.00,WUHU216HW,2013-02-04 02:34:00,
2013-02-03 19:35:00,49.3,36.1,29.96,SW,225,3.4,3.8,60,0.00,,,0.00,WUHU216HW,2013-02-04 02:35:00,
2013-02-03 19:36:00,49.3,36.1,29.96,WSW,248,2.7,3.8,60,0.00,,,0.00,WUHU216HW,2013-02-04 02:36:00,
2013-02-03 19:38:00,49.3,36.5,29.96,WSW,248,3.8,5.4,61,0.00,,,0.00,WUHU216HW,2013-02-04 02:38:00,
2013-02-03 19:39:00,49.3,36.1,29.96,WSW,248,1.1,5.4,60,0.00,,,0.00,WUHU216HW,2013-02-04 02:39:00,
2013-02-03 19:40:00,49.3,36.1,29.96,SW,225,0.4,5.4,60,0.00,,,0.00,WUHU216HW,2013-02-04 02:40:00,
2013-02-03 19:41:00,49.3,36.1,29.96,SW,225,1.1,5.4,60,0.00,,,0.00,WUHU216HW,2013-02-04 02:41:00,
2013-02-03 19:43:00,49.5,35.8,29.96,SSW,203,2.5,5.4,59,0.00,,,0.00,WUHU216HW,2013-02-04 02:43:00,
2013-02-03 19:45:00,49.7,35.9,29.96,SW,225,2.5,5.4,59,0.00,,,0.00,WUHU216HW,2013-02-04 02:45:00,
2013-02-03 19:46:00,49.7,35.9,29.96,SW,225,2.0,5.4,59,0.00,,,0.00,WUHU216HW,2013-02-04 02:46:00,
2013-02-03 19:48:00,49.9,36.1,29.96,SW,225,3.4,3.6,59,0.00,,,0.00,WUHU216HW,2013-02-04 02:48:00,
2013-02-03 19:50:00,49.9,36.1,29.96,SSW,203,4.0,4.5,59,0.00,,,0.00,WUHU216HW,2013-02-04 02:50:00,
2013-02-03 19:51:00,49.7,35.5,29.96,SSW,203,4.0,4.5,58,0.00,,,0.00,WUHU216HW,2013-02-04 02:51:00,
2013-02-03 19:53:00,49.7,35.5,29.96,SSW,203,4.0,4.7,58,0.00,,,0.00,WUHU216HW,2013-02-04 02:53:00,
2013-02-03 19:55:00,49.5,35.3,29.96,SSW,203,3.4,4.7,58,0.00,,,0.00,WUHU216HW,2013-02-04 02:55:00,
2013-02-03 19:56:00,49.5,35.3,29.96,SSW,203,2.5,4.7,58,0.00,,,0.00,WUHU216HW,2013-02-04 02:56:00,
2013-02-03 19:58:00,49.3,35.2,29.96,SSW,203,3.4,4.7,58,0.00,,,0.00,WUHU216HW,2013-02-04 02:58:00,
2013-02-03 20:00:00,49.3,35.2,29.96,South,180,3.4,4.7,58,0.00,,,0.00,WUHU216HW,2013-02-04 03:00:00,
2013-02-03 20:01:00,49.3,35.7,29.96,South,180,3.4,4.7,59,0.00,,,0.00,WUHU216HW,2013-02-04 03:01:00,
2013-02-03 20:03:00,49.3,35.7,29.96,SSW,203,1.8,4.0,59,0.00,,,0.00,WUHU216HW,2013-02-04 03:03:00,
2013-02-03 20:05:00,49.1,35.5,29.96,SW,225,3.1,3.8,59,0.00,,,0.00,WUHU216HW,2013-02-04 03:05:00,
2013-02-03 20:07:00,49.0,35.3,29.96,SW,225,2.9,4.0,59,0.00,,,0.00,WUHU216HW,2013-02-04 03:07:00,
2013-02-03 20:08:00,49.0,35.3,29.96,SW,225,2.7,4.0,59,0.00,,,0.00,WUHU216HW,2013-02-04 03:08:00,
2013-02-03 20:10:00,48.8,35.1,29.96,South,180,3.6,4.0,59,0.00,,,0.00,WUHU216HW,2013-02-04 03:10:00,
2013-02-03 20:11:00,48.8,35.1,29.96,South,180,4.0,4.0,59,0.00,,,0.00,WUHU216HW,2013-02-04 03:11:00,
2013-02-03 20:12:00,48.8,35.1,29.96,South,180,4.5,4.5,59,0.00,,,0.00,WUHU216HW,2013-02-04 03:12:00,
2013-02-03 20:13:00,48.8,35.1,29.96,South,180,3.6,4.5,59,0.00,,,0.00,WUHU216HW,2013-02-04 03:13:00,
2013-02-03 20:16:00,48.8,35.1,29.96,SSW,203,2.7,4.5,59,0.00,,,0.00,WUHU216HW,2013-02-04 03:16:00,
2013-02-03 20:17:00,48.8,35.1,29.96,SW,225,2.5,4.5,59,0.00,,,0.00,WUHU216HW,2013-02-04 03:17:00,
2013-02-03 20:18:00,48.8,35.1,29.97,SW,225,3.1,4.5,59,0.00,,,0.00,WUHU216HW,2013-02-04 03:18:00,
2013-02-03 20:21:00,48.6,35.5,29.97,SW,225,1.8,4.5,60,0.00,,,0.00,WUHU216HW,2013-02-04 03:21:00,
2013-02-03 20:22:00,48.6,35.5,29.97,SW,225,1.6,4.0,60,0.00,,,0.00,WUHU216HW,2013-02-04 03:22:00,
2013-02-03 20:23:00,48.6,35.5,29.97,SW,225,2.7,4.0,60,0.00,,,0.00,WUHU216HW,2013-02-04 03:23:00,
2013-02-03 20:26:00,48.6,35.5,29.97,SSW,203,3.8,4.0,60,0.00,,,0.00,WUHU216HW,2013-02-04 03:26:00,
2013-02-03 20:27:00,48.6,35.5,29.97,SSW,203,4.5,4.5,60,0.00,,,0.00,WUHU216HW,2013-02-04 03:27:00,
2013-02-03 20:29:00,48.6,35.5,29.96,SSW,203,3.4,4.5,60,0.00,,,0.00,WUHU216HW,2013-02-04 03:29:00,
2013-02-03 20:31:00,48.4,34.8,29.97,South,180,3.1,4.5,59,0.00,,,0.00,WUHU216HW,2013-02-04 03:31:00,
2013-02-03 20:32:00,48.4,34.8,29.97,South,180,2.0,4.5,59,0.00,,,0.00,WUHU216HW,2013-02-04 03:32:00,
2013-02-03 20:34:00,48.4,34.8,29.96,SSW,203,1.8,4.5,59,0.00,,,0.00,WUHU216HW,2013-02-04 03:34:00,
2013-02-03 20:36:00,48.4,35.3,29.96,SW,225,1.1,4.5,60,0.00,,,0.00,WUHU216HW,2013-02-04 03:36:00,
2013-02-03 20:37:00,48.4,35.3,29.96,SW,225,0.7,4.0,60,0.00,,,0.00,WUHU216HW,2013-02-04 03:37:00,
2013-02-03 20:39:00,48.4,35.3,29.96,SW,225,1.1,3.4,60,0.00,,,0.00,WUHU216HW,2013-02-04 03:39:00,
2013-02-03 20:41:00,48.1,35.3,29.96,SW,225,1.8,2.5,61,0.00,,,0.00,WUHU216HW,2013-02-04 03:41:00,
2013-02-03 20:43:00,48.1,35.3,29.97,SW,225,1.8,2.5,61,0.00,,,0.00,WUHU216HW,2013-02-04 03:43:00,
2013-02-03 20:44:00,47.9,35.1,29.97,SW,225,2.0,2.5,61,0.00,,,0.00,WUHU216HW,2013-02-04 03:44:00,
2013-02-03 20:46:00,47.7,34.9,29.97,SW,225,2.0,2.5,61,0.00,,,0.00,WUHU216HW,2013-02-04 03:46:00,
2013-02-03 20:47:00,47.5,34.7,29.97,SW,225,2.0,2.5,61,0.00,,,0.00,WUHU216HW,2013-02-04 03:47:00,
2013-02-03 20:48:00,47.5,34.7,29.97,SW,225,2.5,2.5,61,0.00,,,0.00,WUHU216HW,2013-02-04 03:48:00,
2013-02-03 20:49:00,47.5,34.7,29.97,SW,225,2.5,2.5,61,0.00,,,0.00,WUHU216HW,2013-02-04 03:49:00,
2013-02-03 20:51:00,47.3,34.6,29.97,SW,225,2.0,2.5,61,0.00,,,0.00,WUHU216HW,2013-02-04 03:51:00,
2013-02-03 20:52:00,47.3,34.6,29.97,SW,225,2.5,2.5,61,0.00,,,0.00,WUHU216HW,2013-02-04 03:52:00,
2013-02-03 20:53:00,47.2,34.4,29.97,SW,225,2.0,2.5,61,0.00,,,0.00,WUHU216HW,2013-02-04 03:53:00,
2013-02-03 20:54:00,47.2,34.4,29.97,SW,225,2.5,2.5,61,0.00,,,0.00,WUHU216HW,2013-02-04 03:54:00,
2013-02-03 20:57:00,47.2,34.4,29.97,SW,225,2.0,2.5,61,0.00,,,0.00,WUHU216HW,2013-02-04 03:57:00,
2013-02-03 20:58:00,47.2,34.4,29.97,SW,225,1.3,2.5,61,0.00,,,0.00,WUHU216HW,2013-02-04 03:58:00,
2013-02-03 21:00:00,47.2,34.4,29.97,SW,225,1.1,2.5,61,0.00,,,0.00,WUHU216HW,2013-02-04 04:00:00,
2013-02-03 21:02:00,47.2,34.4,29.97,SW,225,1.8,2.5,61,0.00,,,0.00,WUHU216HW,2013-02-04 04:02:00,
2013-02-03 21:03:00,47.2,34.4,29.97,SW,225,1.8,2.5,61,0.00,,,0.00,WUHU216HW,2013-02-04 04:03:00,
2013-02-03 21:05:00,47.2,34.8,29.97,SW,225,1.8,2.5,62,0.00,,,0.00,WUHU216HW,2013-02-04 04:05:00,
2013-02-03 21:07:00,47.0,34.7,29.97,WSW,248,0.9,2.0,62,0.00,,,0.00,WUHU216HW,2013-02-04 04:07:00,
2013-02-03 21:08:00,47.0,34.7,29.97,WSW,248,0.4,2.0,62,0.00,,,0.00,WUHU216HW,2013-02-04 04:08:00,
2013-02-03 21:10:00,47.0,34.2,29.97,WSW,248,1.6,2.0,61,0.00,,,0.00,WUHU216HW,2013-02-04 04:10:00,
2013-02-03 21:12:00,47.2,34.8,29.97,SW,225,2.7,2.9,62,0.00,,,0.00,WUHU216HW,2013-02-04 04:12:00,
2013-02-03 21:13:00,47.0,34.7,29.97,WSW,248,3.1,4.0,62,0.00,,,0.00,WUHU216HW,2013-02-04 04:13:00,
2013-02-03 21:15:00,47.0,34.2,29.97,SW,225,2.5,4.0,61,0.00,,,0.00,WUHU216HW,2013-02-04 04:15:00,
2013-02-03 21:17:00,47.0,34.2,29.97,SW,225,1.3,4.0,61,0.00,,,0.00,WUHU216HW,2013-02-04 04:17:00,
2013-02-03 21:18:00,47.0,34.2,29.97,SW,225,1.1,4.0,61,0.00,,,0.00,WUHU216HW,2013-02-04 04:18:00,
2013-02-03 21:19:00,47.2,34.4,29.97,SW,225,1.1,4.0,61,0.00,,,0.00,WUHU216HW,2013-02-04 04:19:00,
2013-02-03 21:20:00,47.3,35.0,29.97,WSW,248,3.1,4.0,62,0.00,,,0.00,WUHU216HW,2013-02-04 04:20:00,
2013-02-03 21:22:00,47.3,35.0,29.97,WSW,248,3.4,4.0,62,0.00,,,0.00,WUHU216HW,2013-02-04 04:22:00,
2013-02-03 21:23:00,47.3,35.0,29.97,West,270,3.1,3.4,62,0.00,,,0.00,WUHU216HW,2013-02-04 04:23:00,
2013-02-03 21:24:00,47.5,35.2,29.97,WSW,248,2.0,3.4,62,0.00,,,0.00,WUHU216HW,2013-02-04 04:24:00,
2013-02-03 21:25:00,47.5,35.2,29.97,WSW,248,2.2,3.4,62,0.00,,,0.00,WUHU216HW,2013-02-04 04:25:00,
2013-02-03 21:27:00,47.5,35.2,29.97,WSW,248,0.9,3.4,62,0.00,,,0.00,WUHU216HW,2013-02-04 04:27:00,
2013-02-03 21:28:00,47.5,35.2,29.97,WSW,248,0.0,3.4,62,0.00,,,0.00,WUHU216HW,2013-02-04 04:28:00,
2013-02-03 21:29:00,47.5,34.7,29.97,WSW,248,0.0,3.4,61,0.00,,,0.00,WUHU216HW,2013-02-04 04:29:00,
2013-02-03 21:30:00,47.7,35.4,29.97,WSW,248,1.8,3.4,62,0.00,,,0.00,WUHU216HW,2013-02-04 04:30:00,
2013-02-03 21:32:00,47.7,35.4,29.97,WSW,248,1.6,3.1,62,0.00,,,0.00,WUHU216HW,2013-02-04 04:32:00,
2013-02-03 21:33:00,47.7,35.4,29.97,SW,225,1.1,3.1,62,0.00,,,0.00,WUHU216HW,2013-02-04 04:33:00,
2013-02-03 21:34:00,47.7,35.4,29.97,SW,225,3.4,3.4,62,0.00,,,0.00,WUHU216HW,2013-02-04 04:34:00,
2013-02-03 21:35:00,47.7,35.4,29.97,SW,225,3.1,3.8,62,0.00,,,0.00,WUHU216HW,2013-02-04 04:35:00,
2013-02-03 21:37:00,47.5,35.2,29.97,SW,225,3.1,4.0,62,0.00,,,0.00,WUHU216HW,2013-02-04 04:37:00,
2013-02-03 21:38:00,47.5,35.2,29.97,SW,225,2.5,4.0,62,0.00,,,0.00,WUHU216HW,2013-02-04 04:38:00,
2013-02-03 21:39:00,47.5,35.2,29.97,SW,225,1.6,4.0,62,0.00,,,0.00,WUHU216HW,2013-02-04 04:39:00,
2013-02-03 21:40:00,47.5,35.2,29.97,WSW,248,0.9,4.0,62,0.00,,,0.00,WUHU216HW,2013-02-04 04:40:00,
2013-02-03 21:42:00,47.5,35.2,29.97,West,270,0.2,4.0,62,0.00,,,0.00,WUHU216HW,2013-02-04 04:42:00,
2013-02-03 21:43:00,47.5,35.2,29.97,West,270,0.0,4.0,62,0.00,,,0.00,WUHU216HW,2013-02-04 04:43:00,
2013-02-03 21:44:00,47.5,35.2,29.97,West,270,0.0,4.0,62,0.00,,,0.00,WUHU216HW,2013-02-04 04:44:00,
2013-02-03 21:46:00,47.5,35.2,29.97,WSW,248,1.6,4.0,62,0.00,,,0.00,WUHU216HW,2013-02-04 04:46:00,
2013-02-03 21:47:00,47.5,35.2,29.97,SSW,203,1.8,2.5,62,0.00,,,0.00,WUHU216HW,2013-02-04 04:47:00,
2013-02-03 21:48:00,47.5,35.2,29.97,SW,225,3.4,4.5,62,0.00,,,0.00,WUHU216HW,2013-02-04 04:48:00,
2013-02-03 21:49:00,47.5,35.2,29.97,SW,225,2.0,4.5,62,0.00,,,0.00,WUHU216HW,2013-02-04 04:49:00,
2013-02-03 21:51:00,47.5,35.2,29.97,SW,225,1.1,4.5,62,0.00,,,0.00,WUHU216HW,2013-02-04 04:51:00,
2013-02-03 21:52:00,47.5,35.2,29.97,SW,225,1.1,4.5,62,0.00,,,0.00,WUHU216HW,2013-02-04 04:52:00,
2013-02-03 21:54:00,47.5,35.2,29.97,WSW,248,0.7,4.5,62,0.00,,,0.00,WUHU216HW,2013-02-04 04:54:00,
2013-02-03 21:56:00,47.5,35.6,29.97,SW,225,1.8,4.5,63,0.00,,,0.00,WUHU216HW,2013-02-04 04:56:00,
2013-02-03 21:57:00,47.5,35.2,29.97,SW,225,2.0,4.5,62,0.00,,,0.00,WUHU216HW,2013-02-04 04:57:00,
2013-02-03 21:59:00,47.7,35.4,29.97,WSW,248,1.1,2.5,62,0.00,,,0.00,WUHU216HW,2013-02-04 04:59:00,
2013-02-03 22:00:00,47.7,35.4,29.97,SW,225,0.7,2.5,62,0.00,,,0.00,WUHU216HW,2013-02-04 05:00:00,
2013-02-03 22:01:00,47.7,35.4,29.97,WSW,248,0.4,2.5,62,0.00,,,0.00,WUHU216HW,2013-02-04 05:01:00,
2013-02-03 22:02:00,47.7,35.4,29.97,WSW,248,0.0,2.2,62,0.00,,,0.00,WUHU216HW,2013-02-04 05:02:00,
2013-02-03 22:05:00,47.7,35.4,29.97,SW,225,2.5,2.5,62,0.00,,,0.00,WUHU216HW,2013-02-04 05:05:00,
2013-02-03 22:06:00,47.7,35.4,29.97,SW,225,2.2,2.5,62,0.00,,,0.00,WUHU216HW,2013-02-04 05:06:00,
2013-02-03 22:07:00,47.7,35.4,29.97,SW,225,2.0,2.5,62,0.00,,,0.00,WUHU216HW,2013-02-04 05:07:00,
2013-02-03 22:10:00,47.7,35.4,29.97,SW,225,1.8,2.5,62,0.00,,,0.00,WUHU216HW,2013-02-04 05:10:00,
2013-02-03 22:11:00,47.7,35.4,29.97,SW,225,2.5,2.5,62,0.00,,,0.00,WUHU216HW,2013-02-04 05:11:00,
2013-02-03 22:12:00,47.7,35.4,29.97,SW,225,2.0,2.5,62,0.00,,,0.00,WUHU216HW,2013-02-04 05:12:00,
2013-02-03 22:16:00,47.7,35.4,29.97,SW,225,3.4,3.4,62,0.00,,,0.00,WUHU216HW,2013-02-04 05:16:00,
2013-02-03 22:17:00,47.7,35.4,29.97,SW,225,2.5,3.4,62,0.00,,,0.00,WUHU216HW,2013-02-04 05:17:00,
2013-02-03 22:21:00,47.7,35.4,29.97,SSW,203,1.8,3.4,62,0.00,,,0.00,WUHU216HW,2013-02-04 05:21:00,
2013-02-03 22:22:00,47.5,35.2,29.97,SW,225,1.8,3.4,62,0.00,,,0.00,WUHU216HW,2013-02-04 05:22:00,
2013-02-03 22:26:00,47.5,35.2,29.97,SW,225,3.1,4.5,62,0.00,,,0.00,WUHU216HW,2013-02-04 05:26:00,
2013-02-03 22:27:00,47.5,35.2,29.97,SW,225,3.4,4.5,62,0.00,,,0.00,WUHU216HW,2013-02-04 05:27:00,
2013-02-03 22:28:00,47.5,35.2,29.97,WSW,248,2.9,4.5,62,0.00,,,0.00,WUHU216HW,2013-02-04 05:28:00,
2013-02-03 22:31:00,47.7,34.9,29.97,SW,225,1.3,4.5,61,0.00,,,0.00,WUHU216HW,2013-02-04 05:31:00,
2013-02-03 22:32:00,47.9,35.1,29.97,SW,225,1.3,4.5,61,0.00,,,0.00,WUHU216HW,2013-02-04 05:32:00,
2013-02-03 22:33:00,47.9,35.1,29.97,WSW,248,2.2,4.5,61,0.00,,,0.00,WUHU216HW,2013-02-04 05:33:00,
2013-02-03 22:36:00,47.9,35.1,29.97,SW,225,1.8,3.8,61,0.00,,,0.00,WUHU216HW,2013-02-04 05:36:00,
2013-02-03 22:37:00,47.9,35.1,29.97,SW,225,1.8,3.8,61,0.00,,,0.00,WUHU216HW,2013-02-04 05:37:00,
2013-02-03 22:38:00,48.1,35.3,29.97,SSW,203,1.1,3.8,61,0.00,,,0.00,WUHU216HW,2013-02-04 05:38:00,
2013-02-03 22:41:00,48.1,35.3,29.96,SSW,203,1.1,3.8,61,0.00,,,0.00,WUHU216HW,2013-02-04 05:41:00,
2013-02-03 22:42:00,48.1,35.3,29.96,SW,225,1.1,3.8,61,0.00,,,0.00,WUHU216HW,2013-02-04 05:42:00,
2013-02-03 22:43:00,48.1,35.3,29.96,WSW,248,1.1,3.8,61,0.00,,,0.00,WUHU216HW,2013-02-04 05:43:00,
2013-02-03 22:46:00,48.2,35.5,29.96,SW,225,1.8,2.0,61,0.00,,,0.00,WUHU216HW,2013-02-04 05:46:00,
2013-02-03 22:47:00,48.2,35.5,29.96,SSW,203,1.8,2.0,61,0.00,,,0.00,WUHU216HW,2013-02-04 05:47:00,
2013-02-03 22:48:00,48.2,35.5,29.96,SSW,203,2.9,3.4,61,0.00,,,0.00,WUHU216HW,2013-02-04 05:48:00,
2013-02-03 22:52:00,48.2,35.5,29.96,SSW,203,1.1,3.4,61,0.00,,,0.00,WUHU216HW,2013-02-04 05:52:00,
2013-02-03 22:53:00,48.2,35.5,29.96,North,0,3.1,3.4,61,0.00,,,0.00,WUHU216HW,2013-02-04 05:53:00,
2013-02-03 22:57:00,48.2,35.5,29.97,North,0,1.1,3.4,61,0.00,,,0.00,WUHU216HW,2013-02-04 05:57:00,
2013-02-03 22:58:00,48.2,35.5,29.97,North,0,1.1,3.1,61,0.00,,,0.00,WUHU216HW,2013-02-04 05:58:00,
2013-02-03 23:02:00,48.4,35.6,29.97,North,0,0.0,3.1,61,0.00,,,0.00,WUHU216HW,2013-02-04 06:02:00,
2013-02-03 23:03:00,48.4,35.6,29.97,North,0,0.0,3.1,61,0.00,,,0.00,WUHU216HW,2013-02-04 06:03:00,
2013-02-03 23:07:00,48.6,35.8,29.96,SE,135,0.4,1.1,61,0.00,,,0.00,WUHU216HW,2013-02-04 06:07:00,
2013-02-03 23:08:00,48.6,35.8,29.96,SE,135,0.2,1.1,61,0.00,,,0.00,WUHU216HW,2013-02-04 06:08:00,
2013-02-03 23:12:00,48.6,35.8,29.97,SSW,203,1.8,2.0,61,0.00,,,0.00,WUHU216HW,2013-02-04 06:12:00,
2013-02-03 23:13:00,48.6,35.8,29.97,SSW,203,1.8,2.0,61,0.00,,,0.00,WUHU216HW,2013-02-04 06:13:00,
2013-02-03 23:15:00,48.4,35.6,29.97,South,180,0.9,2.0,61,0.00,,,0.00,WUHU216HW,2013-02-04 06:15:00,
2013-02-03 23:17:00,48.1,35.3,29.97,South,180,0.4,2.0,61,0.00,,,0.00,WUHU216HW,2013-02-04 06:17:00,
2013-02-03 23:18:00,48.1,35.3,29.97,South,180,0.4,2.0,61,0.00,,,0.00,WUHU216HW,2013-02-04 06:18:00,
2013-02-03 23:20:00,47.9,35.1,29.97,SSW,203,0.2,2.0,61,0.00,,,0.00,WUHU216HW,2013-02-04 06:20:00,
2013-02-03 23:22:00,47.9,35.1,29.97,ESE,113,1.1,1.8,61,0.00,,,0.00,WUHU216HW,2013-02-04 06:22:00,
2013-02-03 23:23:00,47.9,35.1,29.97,ESE,113,0.7,1.8,61,0.00,,,0.00,WUHU216HW,2013-02-04 06:23:00,
2013-02-03 23:25:00,47.9,35.1,29.97,SE,135,0.0,1.6,61,0.00,,,0.00,WUHU216HW,2013-02-04 06:25:00,
2013-02-03 23:27:00,47.9,35.1,29.96,SE,135,0.0,1.6,61,0.00,,,0.00,WUHU216HW,2013-02-04 06:27:00,
2013-02-03 23:28:00,47.7,34.9,29.96,SE,135,0.0,1.6,61,0.00,,,0.00,WUHU216HW,2013-02-04 06:28:00,
2013-02-03 23:30:00,47.7,34.9,29.96,SE,135,0.0,1.6,61,0.00,,,0.00,WUHU216HW,2013-02-04 06:30:00,
2013-02-03 23:32:00,47.5,34.7,29.96,West,270,0.0,1.6,61,0.00,,,0.00,WUHU216HW,2013-02-04 06:32:00,
2013-02-03 23:33:00,47.5,35.2,29.96,West,270,0.0,1.6,62,0.00,,,0.00,WUHU216HW,2013-02-04 06:33:00,
2013-02-03 23:35:00,47.5,35.2,29.96,WNW,293,0.0,0.0,62,0.00,,,0.00,WUHU216HW,2013-02-04 06:35:00,
2013-02-03 23:37:00,47.3,35.0,29.96,WSW,248,0.0,0.0,62,0.00,,,0.00,WUHU216HW,2013-02-04 06:37:00,
2013-02-03 23:39:00,47.5,35.2,29.97,WSW,248,0.0,0.0,62,0.00,,,0.00,WUHU216HW,2013-02-04 06:39:00,
2013-02-03 23:41:00,47.3,35.4,29.96,WSW,248,2.5,2.7,63,0.00,,,0.00,WUHU216HW,2013-02-04 06:41:00,
2013-02-03 23:43:00,47.3,35.4,29.97,SW,225,2.5,2.7,63,0.00,,,0.00,WUHU216HW,2013-02-04 06:43:00,
2013-02-03 23:44:00,47.2,35.2,29.97,SW,225,4.7,4.7,63,0.00,,,0.00,WUHU216HW,2013-02-04 06:44:00,
2013-02-03 23:46:00,47.2,35.2,29.97,SW,225,5.4,6.7,63,0.00,,,0.00,WUHU216HW,2013-02-04 06:46:00,
2013-02-03 23:48:00,47.0,35.0,29.96,WSW,248,0.9,6.7,63,0.00,,,0.00,WUHU216HW,2013-02-04 06:48:00,
2013-02-03 23:49:00,46.8,34.8,29.96,SW,225,1.1,6.7,63,0.00,,,0.00,WUHU216HW,2013-02-04 06:49:00,
2013-02-03 23:51:00,46.8,34.8,29.96,SSW,203,3.1,6.7,63,0.00,,,0.00,WUHU216HW,2013-02-04 06:51:00,
2013-02-03 23:53:00,46.8,34.8,29.96,SSE,158,2.0,6.7,63,0.00,,,0.00,WUHU216HW,2013-02-04 06:53:00,
2013-02-03 23:54:00,46.8,34.8,29.96,SE,135,1.8,6.7,63,0.00,,,0.00,WUHU216HW,2013-02-04 06:54:00,
2013-02-03 23:56:00,46.8,34.8,29.96,SSW,203,4.0,5.4,63,0.00,,,0.00,WUHU216HW,2013-02-04 06:56:00,
2013-02-03 23:58:00,46.8,34.8,29.96,SSW,203,1.8,5.1,63,0.00,,,0.00,WUHU216HW,2013-02-04 06:58:00,
2013-02-03 23:59:00,46.8,34.8,29.96,SSW,203,1.8,5.1,63,0.00,,,0.00,WUHU216HW,2013-02-04 06:59:00,